Time,TemperatureF,DewpointF,PressureIn,WindDirection,WindDirectionDegrees,WindSpeedMPH,WindSpeedGustMPH,Humidity,HourlyPrecipIn,Conditions,Clouds,dailyrainin,SolarRadiationWatts/m^2,SoftwareType,DateUTC
2013-06-26 00:00:00,68.7,55.6,30.04,ENE,67,0.0,0.0,63,0.00,FEW,,0.00,0.0,WeatherDisplay:10.37,2013-06-25 22:00:00,
2013-06-26 00:01:00,68.7,55.6,30.04,ENE,67,0.0,0.0,63,0.00,FEW,,0.00,0.0,WeatherDisplay:10.37,2013-06-25 22:01:00,
2013-06-26 00:03:00,68.7,56.0,30.04,ENE,67,0.0,0.0,64,0.00,FEW,,0.00,0.0,WeatherDisplay:10.37,2013-06-25 22:03:00,
2013-06-26 00:04:00,68.6,55.9,30.04,ENE,67,0.0,0.0,64,0.00,FEW,,0.00,0.0,WeatherDisplay:10.37,2013-06-25 22:04:00,
2013-06-26 00:06:00,68.6,55.9,30.04,ENE,67,0.0,0.0,64,0.00,FEW,,0.00,0.0,WeatherDisplay:10.37,2013-06-25 22:06:00,
2013-06-26 00:08:00,68.5,55.8,30.04,ENE,67,0.0,0.0,64,0.00,FEW,,0.00,0.0,WeatherDisplay:10.37,2013-06-25 22:08:00,
2013-06-26 00:09:00,68.5,55.8,30.04,ENE,67,0.0,0.0,64,0.00,FEW,,0.00,0.0,WeatherDisplay:10.37,2013-06-25 22:09:00,
2013-06-26 00:11:00,68.5,55.8,30.04,ENE,67,0.0,0.0,64,0.00,FEW,,0.00,0.0,WeatherDisplay:10.37,2013-06-25 22:11:00,
2013-06-26 00:12:00,68.5,55.8,30.04,ENE,67,0.0,0.0,64,0.00,FEW,,0.00,0.0,WeatherDisplay:10.37,2013-06-25 22:12:00,
2013-06-26 00:13:00,68.5,55.8,30.04,ENE,67,0.0,0.0,64,0.00,FEW,,0.00,0.0,WeatherDisplay:10.37,2013-06-25 22:13:00,
2013-06-26 00:14:00,68.4,55.7,30.04,ENE,67,0.0,0.0,64,0.00,FEW,,0.00,0.0,WeatherDisplay:10.37,2013-06-25 22:14:00,
2013-06-26 00:16:00,68.4,55.7,30.04,ENE,67,0.0,0.0,64,0.00,FEW,,0.00,0.0,WeatherDisplay:10.37,2013-06-25 22:16:00,
2013-06-26 00:17:00,68.4,55.7,30.04,ENE,65,0.0,0.0,64,0.00,FEW,,0.00,0.0,WeatherDisplay:10.37,2013-06-25 22:17:00,
2013-06-26 00:19:00,68.3,55.6,30.04,ENE,65,2.3,2.3,64,0.00,FEW,,0.00,0.0,WeatherDisplay:10.37,2013-06-25 22:19:00,
2013-06-26 00:21:00,68.3,55.6,30.04,ENE,65,1.1,0.0,64,0.00,FEW,,0.00,0.0,WeatherDisplay:10.37,2013-06-25 22:21:00,
2013-06-26 00:22:00,68.3,55.6,30.04,ENE,65,1.1,0.0,64,0.00,FEW,,0.00,0.0,WeatherDisplay:10.37,2013-06-25 22:22:00,
2013-06-26 00:23:00,68.3,56.1,30.04,ENE,65,0.0,0.0,65,0.00,FEW,,0.00,0.0,WeatherDisplay:10.37,2013-06-25 22:23:00,
2013-06-26 00:24:00,68.2,56.0,30.03,ENE,65,0.0,0.0,65,0.00,FEW,,0.00,0.0,WeatherDisplay:10.37,2013-06-25 22:24:00,
2013-06-26 00:25:00,68.2,56.0,30.04,ENE,65,0.0,0.0,65,0.00,FEW,,0.00,0.0,WeatherDisplay:10.37,2013-06-25 22:25:00,
2013-06-26 00:26:00,68.2,56.0,30.04,ENE,65,0.0,0.0,65,0.00,FEW,,0.00,0.0,WeatherDisplay:10.37,2013-06-25 22:26:00,
2013-06-26 00:27:00,68.2,56.0,30.04,ENE,65,0.0,0.0,65,0.00,FEW,,0.00,0.0,WeatherDisplay:10.37,2013-06-25 22:27:00,
2013-06-26 00:28:00,68.2,56.0,30.04,ENE,65,0.0,0.0,65,0.00,FEW,,0.00,0.0,WeatherDisplay:10.37,2013-06-25 22:28:00,
2013-06-26 00:29:00,68.2,56.0,30.04,ENE,65,0.0,0.0,65,0.00,FEW,,0.00,0.0,WeatherDisplay:10.37,2013-06-25 22:29:00,
2013-06-26 00:30:00,68.2,56.0,30.04,ENE,65,0.0,0.0,65,0.00,FEW,,0.00,0.0,WeatherDisplay:10.37,2013-06-25 22:30:00,
2013-06-26 00:31:00,68.1,55.9,30.04,ENE,65,0.0,0.0,65,0.00,FEW,,0.00,0.0,WeatherDisplay:10.37,2013-06-25 22:31:00,
2013-06-26 00:33:00,68.1,55.9,30.04,ENE,65,0.0,0.0,65,0.00,FEW,,0.00,0.0,WeatherDisplay:10.37,2013-06-25 22:33:00,
2013-06-26 00:34:00,68.1,55.9,30.04,ENE,65,0.0,0.0,65,0.00,FEW,,0.00,0.0,WeatherDisplay:10.37,2013-06-25 22:34:00,
2013-06-26 00:35:00,68.1,55.9,30.04,ENE,65,0.0,0.0,65,0.00,FEW,,0.00,0.0,WeatherDisplay:10.37,2013-06-25 22:35:00,
2013-06-26 00:37:00,68.0,55.8,30.04,ENE,65,0.0,0.0,65,0.00,FEW,,0.00,0.0,WeatherDisplay:10.37,2013-06-25 22:37:00,
2013-06-26 00:38:00,68.0,55.8,30.04,ENE,65,0.0,0.0,65,0.00,FEW,,0.00,0.0,WeatherDisplay:10.37,2013-06-25 22:38:00,
2013-06-26 00:39:00,68.0,55.8,30.04,ENE,65,0.0,0.0,65,0.00,FEW,,0.00,0.0,WeatherDisplay:10.37,2013-06-25 22:39:00,
2013-06-26 00:40:00,68.0,55.8,30.03,ENE,65,0.0,0.0,65,0.00,FEW,,0.00,0.0,WeatherDisplay:10.37,2013-06-25 22:40:00,
2013-06-26 00:43:00,68.0,56.2,30.04,NE,36,2.3,2.3,66,0.00,FEW,,0.00,0.0,WeatherDisplay:10.37,2013-06-25 22:43:00,
2013-06-26 00:44:00,68.0,56.2,30.04,NE,36,2.3,2.3,66,0.00,FEW,,0.00,0.0,WeatherDisplay:10.37,2013-06-25 22:44:00,
2013-06-26 00:45:00,67.9,56.1,30.04,NE,36,2.3,2.3,66,0.00,FEW,,0.00,0.0,WeatherDisplay:10.37,2013-06-25 22:45:00,
2013-06-26 00:48:00,67.9,56.1,30.04,NE,40,2.3,2.3,66,0.00,FEW,,0.00,0.0,WeatherDisplay:10.37,2013-06-25 22:48:00,
2013-06-26 00:49:00,67.8,56.0,30.04,NE,40,2.3,2.3,66,0.00,FEW,,0.00,0.0,WeatherDisplay:10.37,2013-06-25 22:49:00,
2013-06-26 00:51:00,67.8,56.0,30.04,NE,40,2.3,2.3,66,0.00,FEW,,0.00,0.0,WeatherDisplay:10.37,2013-06-25 22:51:00,
2013-06-26 00:53:00,67.7,55.9,30.04,NE,40,0.0,0.0,66,0.00,FEW,,0.00,0.0,WeatherDisplay:10.37,2013-06-25 22:53:00,
2013-06-26 00:54:00,67.7,55.9,30.04,NE,40,0.0,0.0,66,0.00,FEW,,0.00,0.0,WeatherDisplay:10.37,2013-06-25 22:54:00,
2013-06-26 00:56:00,67.6,55.8,30.04,NE,40,0.0,0.0,66,0.00,FEW,,0.00,0.0,WeatherDisplay:10.37,2013-06-25 22:56:00,
2013-06-26 00:58:00,67.5,55.7,30.04,NE,40,0.0,0.0,66,0.00,FEW,,0.00,0.0,WeatherDisplay:10.37,2013-06-25 22:58:00,
2013-06-26 00:59:00,67.5,55.7,30.04,NE,40,0.0,0.0,66,0.00,FEW,,0.00,0.0,WeatherDisplay:10.37,2013-06-25 22:59:00,
2013-06-26 01:00:00,67.5,55.7,30.04,NE,40,0.0,0.0,66,0.00,FEW,,0.00,0.0,WeatherDisplay:10.37,2013-06-25 23:00:00,
2013-06-26 01:01:00,67.5,55.7,30.04,NE,40,0.0,0.0,66,0.00,FEW,,0.00,0.0,WeatherDisplay:10.37,2013-06-25 23:01:00,
2013-06-26 01:04:00,67.4,55.6,30.03,NE,40,0.0,0.0,66,0.00,FEW,,0.00,0.0,WeatherDisplay:10.37,2013-06-25 23:04:00,
2013-06-26 01:05:00,67.4,55.6,30.04,NE,40,0.0,0.0,66,0.00,FEW,,0.00,0.0,WeatherDisplay:10.37,2013-06-25 23:05:00,
2013-06-26 01:06:00,67.4,55.6,30.03,NE,40,0.0,0.0,66,0.00,FEW,,0.00,0.0,WeatherDisplay:10.37,2013-06-25 23:06:00,
2013-06-26 01:09:00,67.3,55.5,30.04,NE,40,0.0,0.0,66,0.00,FEW,,0.00,0.0,WeatherDisplay:10.37,2013-06-25 23:09:00,
2013-06-26 01:10:00,67.3,55.5,30.03,NE,40,0.0,0.0,66,0.00,FEW,,0.00,0.0,WeatherDisplay:10.37,2013-06-25 23:10:00,
2013-06-26 01:11:00,67.3,55.5,30.04,NE,40,0.0,0.0,66,0.00,FEW,,0.00,0.0,WeatherDisplay:10.37,2013-06-25 23:11:00,
2013-06-26 01:14:00,67.2,55.5,30.03,NE,40,0.0,0.0,66,0.00,FEW,,0.00,0.0,WeatherDisplay:10.37,2013-06-25 23:14:00,
2013-06-26 01:15:00,67.2,55.5,30.03,NE,40,0.0,0.0,66,0.00,FEW,,0.00,0.0,WeatherDisplay:10.37,2013-06-25 23:15:00,
2013-06-26 01:16:00,67.2,55.5,30.03,NE,40,0.0,0.0,66,0.00,FEW,,0.00,0.0,WeatherDisplay:10.37,2013-06-25 23:16:00,
2013-06-26 01:19:00,67.1,55.4,30.03,NE,40,0.0,0.0,66,0.00,FEW,,0.00,0.0,WeatherDisplay:10.37,2013-06-25 23:19:00,
2013-06-26 01:20:00,67.1,55.4,30.03,NE,40,0.0,0.0,66,0.00,FEW,,0.00,0.0,WeatherDisplay:10.37,2013-06-25 23:20:00,
2013-06-26 01:23:00,67.1,55.8,30.03,NE,40,0.0,0.0,67,0.00,FEW,,0.00,0.0,WeatherDisplay:10.37,2013-06-25 23:23:00,
2013-06-26 01:25:00,67.1,55.8,30.03,NE,49,1.1,0.0,67,0.00,FEW,,0.00,0.0,WeatherDisplay:10.37,2013-06-25 23:25:00,
2013-06-26 01:26:00,67.0,55.7,30.03,NE,50,0.0,0.0,67,0.00,FEW,,0.00,0.0,WeatherDisplay:10.37,2013-06-25 23:26:00,
2013-06-26 01:28:00,67.0,55.7,30.03,NE,50,0.0,0.0,67,0.00,FEW,,0.00,0.0,WeatherDisplay:10.37,2013-06-25 23:28:00,
2013-06-26 01:30:00,67.0,55.7,30.03,NE,50,0.0,0.0,67,0.00,FEW,,0.00,0.0,WeatherDisplay:10.37,2013-06-25 23:30:00,
2013-06-26 01:31:00,67.0,55.7,30.03,NE,50,0.0,0.0,67,0.00,FEW,,0.00,0.0,WeatherDisplay:10.37,2013-06-25 23:31:00,
2013-06-26 01:33:00,66.9,55.6,30.03,NE,50,0.0,0.0,67,0.00,FEW,,0.00,0.0,WeatherDisplay:10.37,2013-06-25 23:33:00,
2013-06-26 01:35:00,66.9,55.6,30.03,NE,50,0.0,0.0,67,0.00,FEW,,0.00,0.0,WeatherDisplay:10.37,2013-06-25 23:35:00,
2013-06-26 01:36:00,66.9,56.0,30.03,NE,50,0.0,0.0,68,0.00,FEW,,0.00,0.0,WeatherDisplay:10.37,2013-06-25 23:36:00,
2013-06-26 01:39:00,66.8,55.9,30.03,NE,50,1.1,1.1,68,0.00,FEW,,0.00,0.0,WeatherDisplay:10.37,2013-06-25 23:39:00,
2013-06-26 01:40:00,66.8,55.9,30.03,NE,50,1.1,1.1,68,0.00,FEW,,0.00,0.0,WeatherDisplay:10.37,2013-06-25 23:40:00,
2013-06-26 01:41:00,66.8,55.9,30.03,NE,50,1.1,1.1,68,0.00,FEW,,0.00,0.0,WeatherDisplay:10.37,2013-06-25 23:41:00,
2013-06-26 01:44:00,66.7,55.8,30.03,NE,50,0.0,0.0,68,0.00,FEW,,0.00,0.0,WeatherDisplay:10.37,2013-06-25 23:44:00,
2013-06-26 01:45:00,66.7,55.8,30.03,NE,50,0.0,0.0,68,0.00,FEW,,0.00,0.0,WeatherDisplay:10.37,2013-06-25 23:45:00,
2013-06-26 01:46:00,66.7,55.8,30.03,ENE,62,1.0,0.0,68,0.00,FEW,,0.00,0.0,WeatherDisplay:10.37,2013-06-25 23:46:00,
2013-06-26 01:49:00,66.6,55.7,30.03,ENE,78,3.5,3.5,68,0.00,FEW,,0.00,0.0,WeatherDisplay:10.37,2013-06-25 23:49:00,
2013-06-26 01:50:00,66.6,55.7,30.03,ENE,67,3.5,3.5,68,0.00,FEW,,0.00,0.0,WeatherDisplay:10.37,2013-06-25 23:50:00,
2013-06-26 01:51:00,66.5,55.6,30.03,ENE,67,3.5,3.5,68,0.00,FEW,,0.00,0.0,WeatherDisplay:10.37,2013-06-25 23:51:00,
2013-06-26 01:54:00,66.5,55.6,30.03,ENE,78,2.3,2.3,68,0.00,FEW,,0.00,0.0,WeatherDisplay:10.37,2013-06-25 23:54:00,
2013-06-26 01:55:00,66.4,55.5,30.03,ENE,78,2.3,2.3,68,0.00,FEW,,0.00,0.0,WeatherDisplay:10.37,2013-06-25 23:55:00,
2013-06-26 01:56:00,66.5,55.6,30.03,ENE,78,2.3,2.3,68,0.00,FEW,,0.00,0.0,WeatherDisplay:10.37,2013-06-25 23:56:00,
2013-06-26 01:57:00,66.4,55.5,30.03,ENE,78,2.3,2.3,68,0.00,FEW,,0.00,0.0,WeatherDisplay:10.37,2013-06-25 23:57:00,
2013-06-26 01:59:00,66.4,55.5,30.03,ENE,63,3.5,3.5,68,0.00,FEW,,0.00,0.0,WeatherDisplay:10.37,2013-06-25 23:59:00,
2013-06-26 02:00:00,66.4,55.5,30.03,ENE,74,3.5,3.5,68,0.00,FEW,,0.00,0.0,WeatherDisplay:10.37,2013-06-26 00:00:00,
2013-06-26 02:01:00,66.4,55.5,30.03,NE,55,2.3,2.3,68,0.00,FEW,,0.00,0.0,WeatherDisplay:10.37,2013-06-26 00:01:00,
2013-06-26 02:02:00,66.4,55.5,30.03,NE,55,3.5,3.5,68,0.00,FEW,,0.00,0.0,WeatherDisplay:10.37,2013-06-26 00:02:00,
2013-06-26 02:04:00,66.4,55.5,30.03,NE,55,3.5,3.5,68,0.00,FEW,,0.00,0.0,WeatherDisplay:10.37,2013-06-26 00:04:00,
2013-06-26 02:05:00,66.3,55.0,30.03,NE,46,3.5,3.5,67,0.00,FEW,,0.00,0.0,WeatherDisplay:10.37,2013-06-26 00:05:00,
2013-06-26 02:06:00,66.3,55.0,30.03,NE,54,3.5,3.5,67,0.00,FEW,,0.00,0.0,WeatherDisplay:10.37,2013-06-26 00:06:00,
2013-06-26 02:07:00,66.3,55.0,30.03,NE,54,3.5,3.5,67,0.00,FEW,,0.00,0.0,WeatherDisplay:10.37,2013-06-26 00:07:00,
2013-06-26 02:09:00,66.3,55.0,30.03,ENE,67,4.6,4.6,67,0.00,FEW,,0.00,0.0,WeatherDisplay:10.37,2013-06-26 00:09:00,
2013-06-26 02:11:00,66.3,55.0,30.03,ENE,61,3.5,3.5,67,0.00,FEW,,0.00,0.0,WeatherDisplay:10.37,2013-06-26 00:11:00,
2013-06-26 02:12:00,66.3,55.0,30.02,NE,55,3.5,3.5,67,0.00,FEW,,0.00,0.0,WeatherDisplay:10.37,2013-06-26 00:12:00,
2013-06-26 02:14:00,66.3,55.0,30.02,East,82,4.6,4.6,67,0.00,FEW,,0.00,0.0,WeatherDisplay:10.37,2013-06-26 00:14:00,
2013-06-26 02:16:00,66.3,55.0,30.03,ENE,62,3.5,3.5,67,0.00,FEW,,0.00,0.0,WeatherDisplay:10.37,2013-06-26 00:16:00,
2013-06-26 02:17:00,66.2,54.9,30.03,NE,55,4.6,4.6,67,0.00,FEW,,0.00,0.0,WeatherDisplay:10.37,2013-06-26 00:17:00,
2013-06-26 02:19:00,66.2,54.9,30.02,NE,46,3.5,3.5,67,0.00,FEW,,0.00,0.0,WeatherDisplay:10.37,2013-06-26 00:19:00,
2013-06-26 02:21:00,66.2,54.9,30.02,NE,47,3.5,3.5,67,0.00,FEW,,0.00,0.0,WeatherDisplay:10.37,2013-06-26 00:21:00,
2013-06-26 02:23:00,66.2,54.9,30.02,NE,49,0.0,0.0,67,0.00,FEW,,0.00,0.0,WeatherDisplay:10.37,2013-06-26 00:23:00,
2013-06-26 02:24:00,66.2,54.9,30.02,NE,49,0.0,0.0,67,0.00,FEW,,0.00,0.0,WeatherDisplay:10.37,2013-06-26 00:24:00,
2013-06-26 02:26:00,66.2,54.9,30.02,NE,49,1.1,1.1,67,0.00,FEW,,0.00,0.0,WeatherDisplay:10.37,2013-06-26 00:26:00,
2013-06-26 02:27:00,66.1,54.8,30.02,NE,53,2.3,2.3,67,0.00,FEW,,0.00,0.0,WeatherDisplay:10.37,2013-06-26 00:27:00,
2013-06-26 02:28:00,66.1,54.8,30.02,NE,53,2.3,2.3,67,0.00,FEW,,0.00,0.0,WeatherDisplay:10.37,2013-06-26 00:28:00,
2013-06-26 02:30:00,66.1,54.8,30.02,NE,34,2.3,2.3,67,0.00,FEW,,0.00,0.0,WeatherDisplay:10.37,2013-06-26 00:30:00,
2013-06-26 02:31:00,66.1,54.8,30.02,NE,49,0.0,0.0,67,0.00,FEW,,0.00,0.0,WeatherDisplay:10.37,2013-06-26 00:31:00,
2013-06-26 02:32:00,66.0,54.7,30.02,NE,49,0.0,0.0,67,0.00,FEW,,0.00,0.0,WeatherDisplay:10.37,2013-06-26 00:32:00,
2013-06-26 02:33:00,66.0,54.7,30.02,NE,49,0.0,0.0,67,0.00,FEW,,0.00,0.0,WeatherDisplay:10.37,2013-06-26 00:33:00,
2013-06-26 02:35:00,66.0,54.7,30.02,East,88,2.3,2.3,67,0.00,FEW,,0.00,0.0,WeatherDisplay:10.37,2013-06-26 00:35:00,
2013-06-26 02:36:00,66.0,54.7,30.02,East,86,3.5,3.5,67,0.00,FEW,,0.00,0.0,WeatherDisplay:10.37,2013-06-26 00:36:00,
2013-06-26 02:37:00,66.0,55.1,30.02,East,85,2.3,2.3,68,0.00,FEW,,0.00,0.0,WeatherDisplay:10.37,2013-06-26 00:37:00,
2013-06-26 02:38:00,66.0,55.1,30.02,East,79,5.0,5.0,68,0.00,FEW,,0.00,0.0,WeatherDisplay:10.37,2013-06-26 00:38:00,
2013-06-26 02:40:00,65.9,55.0,30.02,ENE,75,5.8,5.8,68,0.00,FEW,,0.00,0.0,WeatherDisplay:10.37,2013-06-26 00:40:00,
2013-06-26 02:41:00,65.9,55.0,30.02,ENE,73,4.6,4.6,68,0.00,FEW,,0.00,0.0,WeatherDisplay:10.37,2013-06-26 00:41:00,
2013-06-26 02:42:00,65.8,54.9,30.02,ENE,67,4.6,4.6,68,0.00,FEW,,0.00,0.0,WeatherDisplay:10.37,2013-06-26 00:42:00,
2013-06-26 02:43:00,65.8,54.9,30.02,ENE,61,3.5,3.5,68,0.00,FEW,,0.00,0.0,WeatherDisplay:10.37,2013-06-26 00:43:00,
2013-06-26 02:45:00,65.7,54.8,30.02,ENE,74,4.6,4.6,68,0.00,FEW,,0.00,0.0,WeatherDisplay:10.37,2013-06-26 00:45:00,
2013-06-26 02:46:00,65.6,54.8,30.02,East,80,5.0,5.0,68,0.00,FEW,,0.00,0.0,WeatherDisplay:10.37,2013-06-26 00:46:00,
2013-06-26 02:47:00,65.6,54.8,30.02,ENE,67,4.6,4.6,68,0.00,FEW,,0.00,0.0,WeatherDisplay:10.37,2013-06-26 00:47:00,
2013-06-26 02:48:00,65.6,54.8,30.02,ENE,74,4.6,4.6,68,0.00,FEW,,0.00,0.0,WeatherDisplay:10.37,2013-06-26 00:48:00,
2013-06-26 02:51:00,65.5,54.7,30.02,ENE,63,3.5,3.5,68,0.00,FEW,,0.00,0.0,WeatherDisplay:10.37,2013-06-26 00:51:00,
2013-06-26 02:52:00,65.5,54.7,30.02,ENE,57,2.3,2.6,68,0.00,FEW,,0.00,0.0,WeatherDisplay:10.37,2013-06-26 00:52:00,
2013-06-26 02:53:00,65.5,54.7,30.02,NE,45,4.0,4.0,68,0.00,FEW,,0.00,0.0,WeatherDisplay:10.37,2013-06-26 00:53:00,
2013-06-26 02:55:00,65.5,54.7,30.02,NE,55,3.5,3.5,68,0.00,FEW,,0.00,0.0,WeatherDisplay:10.37,2013-06-26 00:55:00,
2013-06-26 02:56:00,65.5,54.7,30.02,ENE,59,3.5,3.5,68,0.00,FEW,,0.00,0.0,WeatherDisplay:10.37,2013-06-26 00:56:00,
2013-06-26 02:58:00,65.4,54.2,30.02,ENE,59,4.6,4.6,67,0.00,FEW,,0.00,0.0,WeatherDisplay:10.37,2013-06-26 00:58:00,
2013-06-26 02:59:00,65.4,54.2,30.02,ENE,77,3.5,3.5,67,0.00,FEW,,0.00,0.0,WeatherDisplay:10.37,2013-06-26 00:59:00,
2013-06-26 03:00:00,65.4,54.2,30.02,ENE,74,3.5,3.5,67,0.00,FEW,,0.00,0.0,WeatherDisplay:10.37,2013-06-26 01:00:00,
2013-06-26 03:01:00,65.4,54.2,30.02,NE,52,3.5,3.5,67,0.00,FEW,,0.00,0.0,WeatherDisplay:10.37,2013-06-26 01:01:00,
2013-06-26 03:03:00,65.4,54.2,30.02,ENE,68,3.5,3.5,67,0.00,FEW,,0.00,0.0,WeatherDisplay:10.37,2013-06-26 01:03:00,
2013-06-26 03:04:00,65.4,54.2,30.02,ENE,65,3.5,3.5,67,0.00,FEW,,0.00,0.0,WeatherDisplay:10.37,2013-06-26 01:04:00,
2013-06-26 03:05:00,65.5,54.2,30.02,NE,55,2.3,2.3,67,0.00,FEW,,0.00,0.0,WeatherDisplay:10.37,2013-06-26 01:05:00,
2013-06-26 03:07:00,65.5,54.2,30.02,ENE,63,3.5,3.5,67,0.00,FEW,,0.00,0.0,WeatherDisplay:10.37,2013-06-26 01:07:00,
2013-06-26 03:08:00,65.5,54.2,30.02,ENE,71,2.3,2.3,67,0.00,FEW,,0.00,0.0,WeatherDisplay:10.37,2013-06-26 01:08:00,
2013-06-26 03:09:00,65.5,54.2,30.02,ENE,63,2.3,2.3,67,0.00,FEW,,0.00,0.0,WeatherDisplay:10.37,2013-06-26 01:09:00,
2013-06-26 03:10:00,65.5,54.2,30.02,East,80,3.5,3.5,67,0.00,FEW,,0.00,0.0,WeatherDisplay:10.37,2013-06-26 01:10:00,
2013-06-26 03:12:00,65.5,54.2,30.02,ENE,78,3.5,3.5,67,0.00,FEW,,0.00,0.0,WeatherDisplay:10.37,2013-06-26 01:12:00,
2013-06-26 03:13:00,65.5,54.2,30.02,East,80,3.5,3.5,67,0.00,FEW,,0.00,0.0,WeatherDisplay:10.37,2013-06-26 01:13:00,
2013-06-26 03:14:00,65.5,53.8,30.02,ENE,68,2.3,2.3,66,0.00,FEW,,0.00,0.0,WeatherDisplay:10.37,2013-06-26 01:14:00,
2013-06-26 03:15:00,65.5,53.8,30.02,ENE,69,3.5,3.5,66,0.00,FEW,,0.00,0.0,WeatherDisplay:10.37,2013-06-26 01:15:00,
2013-06-26 03:16:00,65.5,53.8,30.02,ENE,70,3.0,3.0,66,0.00,FEW,,0.00,0.0,WeatherDisplay:10.37,2013-06-26 01:16:00,
2013-06-26 03:17:00,65.5,53.8,30.02,ENE,65,3.5,3.5,66,0.00,FEW,,0.00,0.0,WeatherDisplay:10.37,2013-06-26 01:17:00,
2013-06-26 03:18:00,65.5,53.8,30.02,ENE,58,3.5,3.5,66,0.00,FEW,,0.00,0.0,WeatherDisplay:10.37,2013-06-26 01:18:00,
2013-06-26 03:19:00,65.5,53.8,30.02,ENE,72,2.3,2.3,66,0.00,FEW,,0.00,0.0,WeatherDisplay:10.37,2013-06-26 01:19:00,
2013-06-26 03:20:00,65.5,53.8,30.02,ENE,72,2.3,0.0,66,0.00,FEW,,0.00,0.0,WeatherDisplay:10.37,2013-06-26 01:20:00,
2013-06-26 03:22:00,65.5,53.8,30.02,NE,51,2.3,2.3,66,0.00,FEW,,0.00,0.0,WeatherDisplay:10.37,2013-06-26 01:22:00,
2013-06-26 03:23:00,65.5,53.8,30.02,NE,51,0.0,0.0,66,0.00,FEW,,0.00,0.0,WeatherDisplay:10.37,2013-06-26 01:23:00,
2013-06-26 03:24:00,65.5,53.8,30.02,NE,56,0.0,0.0,66,0.00,FEW,,0.00,0.0,WeatherDisplay:10.37,2013-06-26 01:24:00,
2013-06-26 03:25:00,65.4,53.7,30.02,ENE,57,0.0,0.0,66,0.00,FEW,,0.00,0.0,WeatherDisplay:10.37,2013-06-26 01:25:00,
2013-06-26 03:27:00,65.4,53.7,30.02,ENE,63,2.3,2.3,66,0.00,FEW,,0.00,0.0,WeatherDisplay:10.37,2013-06-26 01:27:00,
2013-06-26 03:28:00,65.4,53.7,30.02,ENE,63,2.3,2.3,66,0.00,FEW,,0.00,0.0,WeatherDisplay:10.37,2013-06-26 01:28:00,
2013-06-26 03:29:00,65.3,53.6,30.02,ENE,65,2.3,2.3,66,0.00,FEW,,0.00,0.0,WeatherDisplay:10.37,2013-06-26 01:29:00,
2013-06-26 03:30:00,65.3,53.6,30.02,ENE,66,2.3,2.3,66,0.00,FEW,,0.00,0.0,WeatherDisplay:10.37,2013-06-26 01:30:00,
2013-06-26 03:32:00,65.3,53.6,30.02,ENE,67,2.3,2.3,66,0.00,FEW,,0.00,0.0,WeatherDisplay:10.37,2013-06-26 01:32:00,
2013-06-26 03:34:00,65.2,53.6,30.02,East,84,3.5,3.5,66,0.00,FEW,,0.00,0.0,WeatherDisplay:10.37,2013-06-26 01:34:00,
2013-06-26 03:35:00,65.2,53.6,30.02,ENE,65,3.5,3.5,66,0.00,FEW,,0.00,0.0,WeatherDisplay:10.37,2013-06-26 01:35:00,
2013-06-26 03:37:00,65.2,53.6,30.02,ENE,72,3.5,3.5,66,0.00,FEW,,0.00,0.0,WeatherDisplay:10.37,2013-06-26 01:37:00,
2013-06-26 03:39:00,65.1,53.5,30.02,East,82,5.0,5.0,66,0.00,FEW,,0.00,0.0,WeatherDisplay:10.37,2013-06-26 01:39:00,
2013-06-26 03:40:00,65.1,53.5,30.02,ENE,67,3.5,3.5,66,0.00,FEW,,0.00,0.0,WeatherDisplay:10.37,2013-06-26 01:40:00,
2013-06-26 03:42:00,65.1,53.5,30.02,ENE,77,3.5,3.5,66,0.00,FEW,,0.00,0.0,WeatherDisplay:10.37,2013-06-26 01:42:00,
2013-06-26 03:44:00,65.1,53.5,30.02,NE,55,4.0,4.0,66,0.00,FEW,,0.00,0.0,WeatherDisplay:10.37,2013-06-26 01:44:00,
2013-06-26 03:46:00,65.1,53.5,30.02,ENE,69,3.5,3.5,66,0.00,FEW,,0.00,0.0,WeatherDisplay:10.37,2013-06-26 01:46:00,
2013-06-26 03:47:00,65.1,53.5,30.02,ENE,66,3.5,3.5,66,0.00,FEW,,0.00,0.0,WeatherDisplay:10.37,2013-06-26 01:47:00,
2013-06-26 03:49:00,65.1,53.5,30.02,ENE,65,3.5,3.5,66,0.00,FEW,,0.00,0.0,WeatherDisplay:10.37,2013-06-26 01:49:00,
2013-06-26 03:50:00,65.1,53.5,30.02,East,85,3.5,3.5,66,0.00,FEW,,0.00,0.0,WeatherDisplay:10.37,2013-06-26 01:50:00,
2013-06-26 03:51:00,65.2,53.6,30.02,ENE,69,3.5,3.5,66,0.00,FEW,,0.00,0.0,WeatherDisplay:10.37,2013-06-26 01:51:00,
2013-06-26 03:52:00,65.2,53.6,30.02,ENE,74,3.5,3.5,66,0.00,FEW,,0.00,0.0,WeatherDisplay:10.37,2013-06-26 01:52:00,
2013-06-26 03:53:00,65.2,53.6,30.02,ENE,78,3.5,3.5,66,0.00,FEW,,0.00,0.0,WeatherDisplay:10.37,2013-06-26 01:53:00,
2013-06-26 03:54:00,65.2,53.6,30.02,ENE,61,3.5,3.5,66,0.00,FEW,,0.00,0.0,WeatherDisplay:10.37,2013-06-26 01:54:00,
2013-06-26 03:55:00,65.2,53.6,30.02,ENE,75,3.5,3.5,66,0.00,FEW,,0.00,0.0,WeatherDisplay:10.37,2013-06-26 01:55:00,
2013-06-26 03:56:00,65.2,53.6,30.02,ENE,63,3.5,3.5,66,0.00,FEW,,0.00,0.0,WeatherDisplay:10.37,2013-06-26 01:56:00,
2013-06-26 03:58:00,65.2,53.6,30.02,ENE,72,3.5,3.5,66,0.00,FEW,,0.00,0.0,WeatherDisplay:10.37,2013-06-26 01:58:00,
2013-06-26 04:00:00,65.2,53.6,30.02,ENE,59,4.6,4.6,66,0.00,FEW,,0.00,0.0,WeatherDisplay:10.37,2013-06-26 02:00:00,
2013-06-26 04:01:00,65.2,53.1,30.02,ENE,76,3.5,3.5,65,0.00,FEW,,0.00,0.0,WeatherDisplay:10.37,2013-06-26 02:01:00,
2013-06-26 04:03:00,65.2,53.6,30.02,ENE,67,3.5,3.5,66,0.00,FEW,,0.00,0.0,WeatherDisplay:10.37,2013-06-26 02:03:00,
2013-06-26 04:05:00,65.2,53.1,30.02,ENE,73,4.0,4.0,65,0.00,FEW,,0.00,0.0,WeatherDisplay:10.37,2013-06-26 02:05:00,
2013-06-26 04:06:00,65.2,53.1,30.02,ENE,63,3.5,3.5,65,0.00,FEW,,0.00,0.0,WeatherDisplay:10.37,2013-06-26 02:06:00,
2013-06-26 04:08:00,65.2,53.1,30.02,ENE,74,3.5,3.5,65,0.00,FEW,,0.00,0.0,WeatherDisplay:10.37,2013-06-26 02:08:00,
2013-06-26 04:09:00,65.1,53.0,30.02,ENE,78,3.5,3.5,65,0.00,FEW,,0.00,0.0,WeatherDisplay:10.37,2013-06-26 02:09:00,
2013-06-26 04:10:00,65.1,53.0,30.02,ENE,61,4.0,4.0,65,0.00,FEW,,0.00,0.0,WeatherDisplay:10.37,2013-06-26 02:10:00,
2013-06-26 04:11:00,65.1,53.0,30.02,ENE,59,4.6,4.6,65,0.00,FEW,,0.00,0.0,WeatherDisplay:10.37,2013-06-26 02:11:00,
2013-06-26 04:14:00,65.0,52.9,30.02,ENE,67,3.5,3.5,65,0.00,FEW,,0.00,0.0,WeatherDisplay:10.37,2013-06-26 02:14:00,
2013-06-26 04:15:00,65.0,52.9,30.02,NE,46,4.6,4.6,65,0.00,FEW,,0.00,0.0,WeatherDisplay:10.37,2013-06-26 02:15:00,
2013-06-26 04:16:00,64.9,52.8,30.02,NE,52,4.6,4.6,65,0.00,FEW,,0.00,0.0,WeatherDisplay:10.37,2013-06-26 02:16:00,
2013-06-26 04:19:00,64.8,53.2,30.02,ENE,73,3.5,3.5,66,0.00,FEW,,0.00,0.0,WeatherDisplay:10.37,2013-06-26 02:19:00,
2013-06-26 04:20:00,64.8,53.2,30.02,ENE,68,3.0,3.0,66,0.00,FEW,,0.00,0.0,WeatherDisplay:10.37,2013-06-26 02:20:00,
2013-06-26 04:21:00,64.8,53.2,30.02,NE,49,3.5,3.5,66,0.00,FEW,,0.00,0.0,WeatherDisplay:10.37,2013-06-26 02:21:00,
2013-06-26 04:24:00,64.8,53.2,30.02,ENE,75,3.5,3.5,66,0.00,FEW,,0.00,0.0,WeatherDisplay:10.37,2013-06-26 02:24:00,
2013-06-26 04:25:00,64.8,53.2,30.02,ENE,66,3.5,3.5,66,0.00,FEW,,0.00,0.0,WeatherDisplay:10.37,2013-06-26 02:25:00,
2013-06-26 04:26:00,64.7,53.1,30.02,NE,53,3.5,3.5,66,0.00,FEW,,0.00,0.0,WeatherDisplay:10.37,2013-06-26 02:26:00,
2013-06-26 04:30:00,64.7,52.7,30.02,ENE,61,3.5,3.5,65,0.00,FEW,,0.00,0.0,WeatherDisplay:10.37,2013-06-26 02:30:00,
2013-06-26 04:31:00,64.7,52.7,30.02,NE,45,3.5,3.5,65,0.00,FEW,,0.00,0.0,WeatherDisplay:10.37,2013-06-26 02:31:00,
2013-06-26 04:32:00,64.7,52.7,30.02,East,90,3.5,3.5,65,0.00,FEW,,0.00,0.0,WeatherDisplay:10.37,2013-06-26 02:32:00,
2013-06-26 04:35:00,64.7,52.7,30.02,NE,52,3.5,3.5,65,0.00,FEW,,0.00,0.0,WeatherDisplay:10.37,2013-06-26 02:35:00,
2013-06-26 04:36:00,64.7,52.7,30.02,NE,55,4.0,4.0,65,0.00,FEW,,0.00,0.0,WeatherDisplay:10.37,2013-06-26 02:36:00,
2013-06-26 04:37:00,64.7,52.7,30.02,NE,49,3.5,3.5,65,0.00,FEW,,0.00,0.0,WeatherDisplay:10.37,2013-06-26 02:37:00,
2013-06-26 04:40:00,64.6,52.6,30.02,NE,40,6.9,6.9,65,0.00,FEW,,0.00,0.0,WeatherDisplay:10.37,2013-06-26 02:40:00,
2013-06-26 04:41:00,64.6,52.6,30.02,ENE,67,8.1,8.1,65,0.00,FEW,,0.00,0.0,WeatherDisplay:10.37,2013-06-26 02:41:00,
2013-06-26 04:42:00,64.6,52.6,30.02,ENE,63,8.1,8.1,65,0.00,FEW,,0.00,0.0,WeatherDisplay:10.37,2013-06-26 02:42:00,
2013-06-26 04:45:00,64.6,52.6,30.02,ENE,58,9.2,9.2,65,0.00,FEW,,0.00,0.0,WeatherDisplay:10.37,2013-06-26 02:45:00,
2013-06-26 04:46:00,64.6,52.6,30.02,NE,54,9.2,9.2,65,0.00,FEW,,0.00,0.0,WeatherDisplay:10.37,2013-06-26 02:46:00,
2013-06-26 04:47:00,64.6,52.6,30.02,ENE,69,8.1,8.1,65,0.00,FEW,,0.00,0.0,WeatherDisplay:10.37,2013-06-26 02:47:00,
2013-06-26 04:48:00,64.6,52.6,30.02,ENE,59,8.1,8.1,65,0.00,FEW,,0.00,0.0,WeatherDisplay:10.37,2013-06-26 02:48:00,
2013-06-26 04:51:00,64.7,52.7,30.02,NE,49,6.0,6.0,65,0.00,FEW,,0.00,0.0,WeatherDisplay:10.37,2013-06-26 02:51:00,
2013-06-26 04:52:00,64.7,52.7,30.02,NE,50,6.9,6.9,65,0.00,FEW,,0.00,0.0,WeatherDisplay:10.37,2013-06-26 02:52:00,
2013-06-26 04:53:00,64.7,52.7,30.02,NE,44,6.9,6.9,65,0.00,FEW,,0.00,0.0,WeatherDisplay:10.37,2013-06-26 02:53:00,
2013-06-26 04:56:00,64.7,52.7,30.02,ENE,58,9.2,9.2,65,0.00,FEW,,0.00,0.0,WeatherDisplay:10.37,2013-06-26 02:56:00,
2013-06-26 04:58:00,64.8,52.8,30.02,NE,53,9.2,9.2,65,0.00,FEW,,0.00,0.0,WeatherDisplay:10.37,2013-06-26 02:58:00,
2013-06-26 04:59:00,64.8,52.8,30.02,NE,51,6.9,6.9,65,0.00,FEW,,0.00,0.0,WeatherDisplay:10.37,2013-06-26 02:59:00,
2013-06-26 05:01:00,64.8,52.8,30.02,ENE,57,6.9,6.9,65,0.00,FEW,,0.00,0.0,WeatherDisplay:10.37,2013-06-26 03:01:00,
2013-06-26 05:02:00,64.8,52.3,30.02,ENE,67,10.4,10.4,64,0.00,FEW,,0.00,0.0,WeatherDisplay:10.37,2013-06-26 03:02:00,
2013-06-26 05:03:00,64.7,52.2,30.02,NE,51,9.2,9.2,64,0.00,FEW,,0.00,0.0,WeatherDisplay:10.37,2013-06-26 03:03:00,
2013-06-26 05:04:00,64.7,52.2,30.02,NE,55,10.4,10.4,64,0.00,FEW,,0.00,0.0,WeatherDisplay:10.37,2013-06-26 03:04:00,
2013-06-26 05:06:00,64.7,52.2,30.02,ENE,58,7.0,7.0,64,0.00,FEW,,0.00,0.0,WeatherDisplay:10.37,2013-06-26 03:06:00,
2013-06-26 05:07:00,64.7,52.2,30.02,ENE,59,8.1,8.1,64,0.00,FEW,,0.00,0.0,WeatherDisplay:10.37,2013-06-26 03:07:00,
2013-06-26 05:08:00,64.7,52.2,30.02,ENE,64,9.2,9.2,64,0.00,FEW,,0.00,0.0,WeatherDisplay:10.37,2013-06-26 03:08:00,
2013-06-26 05:10:00,64.7,52.2,30.02,NE,46,6.9,6.9,64,0.00,FEW,,0.00,0.0,WeatherDisplay:10.37,2013-06-26 03:10:00,
2013-06-26 05:11:00,64.6,52.1,30.02,NE,51,7.0,7.0,64,0.00,FEW,,0.00,0.0,WeatherDisplay:10.37,2013-06-26 03:11:00,
2013-06-26 05:12:00,64.6,52.1,30.02,ENE,57,8.1,8.1,64,0.00,FEW,,0.00,0.0,WeatherDisplay:10.37,2013-06-26 03:12:00,
2013-06-26 05:13:00,64.6,52.1,30.02,ENE,60,8.1,8.1,64,0.00,FEW,,0.00,0.0,WeatherDisplay:10.37,2013-06-26 03:13:00,
2013-06-26 05:15:00,64.6,52.1,30.02,NE,53,8.1,8.1,64,0.00,FEW,,0.00,0.0,WeatherDisplay:10.37,2013-06-26 03:15:00,
2013-06-26 05:16:00,64.6,52.1,30.02,ENE,59,8.1,8.1,64,0.00,FEW,,0.00,0.0,WeatherDisplay:10.37,2013-06-26 03:16:00,
2013-06-26 05:17:00,64.6,52.1,30.02,ENE,57,8.1,8.1,64,0.00,FEW,,0.00,0.0,WeatherDisplay:10.37,2013-06-26 03:17:00,
2013-06-26 05:18:00,64.6,52.1,30.02,ENE,62,8.1,8.1,64,0.00,FEW,,0.00,0.0,WeatherDisplay:10.37,2013-06-26 03:18:00,
2013-06-26 05:20:00,64.5,52.0,30.02,NE,42,8.1,8.1,64,0.00,FEW,,0.00,0.0,WeatherDisplay:10.37,2013-06-26 03:20:00,
2013-06-26 05:22:00,64.5,52.0,30.02,NE,41,9.2,9.2,64,0.00,FEW,,0.00,0.0,WeatherDisplay:10.37,2013-06-26 03:22:00,
2013-06-26 05:23:00,64.5,52.0,30.02,NE,49,9.2,9.2,64,0.00,FEW,,0.00,0.0,WeatherDisplay:10.37,2013-06-26 03:23:00,
2013-06-26 05:24:00,64.4,52.0,30.02,ENE,61,6.9,6.9,64,0.00,FEW,,0.00,0.0,WeatherDisplay:10.37,2013-06-26 03:24:00,
2013-06-26 05:26:00,64.4,52.0,30.02,ENE,64,8.1,8.1,64,0.00,FEW,,0.00,0.0,WeatherDisplay:10.37,2013-06-26 03:26:00,
2013-06-26 05:27:00,64.4,52.0,30.02,ENE,65,9.0,9.0,64,0.00,FEW,,0.00,0.0,WeatherDisplay:10.37,2013-06-26 03:27:00,
2013-06-26 05:28:00,64.4,52.0,30.02,NE,53,8.1,8.1,64,0.00,FEW,,0.00,0.0,WeatherDisplay:10.37,2013-06-26 03:28:00,
2013-06-26 05:29:00,64.4,52.0,30.02,ENE,61,9.2,9.2,64,0.00,FEW,,0.00,0.0,WeatherDisplay:10.37,2013-06-26 03:29:00,
2013-06-26 05:31:00,64.4,52.0,30.02,ENE,61,9.2,9.2,64,0.00,FEW,,0.00,0.0,WeatherDisplay:10.37,2013-06-26 03:31:00,
2013-06-26 05:32:00,64.4,52.0,30.02,ENE,63,5.8,5.8,64,0.00,FEW,,0.00,0.0,WeatherDisplay:10.37,2013-06-26 03:32:00,
2013-06-26 05:33:00,64.4,52.0,30.02,NE,55,4.0,4.0,64,0.00,FEW,,0.00,0.0,WeatherDisplay:10.37,2013-06-26 03:33:00,
2013-06-26 05:34:00,64.4,52.0,30.02,ENE,63,3.5,3.5,64,0.00,FEW,,0.00,0.0,WeatherDisplay:10.37,2013-06-26 03:34:00,
2013-06-26 05:36:00,64.4,51.5,30.02,ENE,72,4.6,4.6,63,0.00,FEW,,0.00,5.0,WeatherDisplay:10.37,2013-06-26 03:36:00,
2013-06-26 05:38:00,64.4,51.5,30.02,ENE,66,4.6,4.6,63,0.00,FEW,,0.00,5.0,WeatherDisplay:10.37,2013-06-26 03:38:00,
2013-06-26 05:39:00,64.4,51.5,30.02,ENE,60,5.0,5.0,63,0.00,FEW,,0.00,5.0,WeatherDisplay:10.37,2013-06-26 03:39:00,
2013-06-26 05:42:00,64.5,51.6,30.02,NE,49,6.9,6.9,63,0.00,FEW,,0.00,7.0,WeatherDisplay:10.37,2013-06-26 03:42:00,
2013-06-26 05:43:00,64.5,51.6,30.02,ENE,71,6.9,6.9,63,0.00,FEW,,0.00,7.0,WeatherDisplay:10.37,2013-06-26 03:43:00,
2013-06-26 05:44:00,64.5,51.6,30.02,East,80,4.6,4.6,63,0.00,FEW,,0.00,7.0,WeatherDisplay:10.37,2013-06-26 03:44:00,
2013-06-26 05:47:00,64.7,51.4,30.02,NE,40,4.6,4.6,62,0.00,FEW,,0.00,9.0,WeatherDisplay:10.37,2013-06-26 03:47:00,
2013-06-26 05:48:00,64.7,51.4,30.02,ENE,59,4.6,4.6,62,0.00,FEW,,0.00,9.0,WeatherDisplay:10.37,2013-06-26 03:48:00,
2013-06-26 05:49:00,64.7,51.4,30.02,ENE,78,4.6,4.6,62,0.00,FEW,,0.00,9.0,WeatherDisplay:10.37,2013-06-26 03:49:00,
2013-06-26 05:50:00,64.7,51.4,30.02,East,83,5.0,5.0,62,0.00,FEW,,0.00,9.0,WeatherDisplay:10.37,2013-06-26 03:50:00,
2013-06-26 05:52:00,64.8,51.5,30.02,ENE,76,7.0,7.0,62,0.00,FEW,,0.00,11.0,WeatherDisplay:10.37,2013-06-26 03:52:00,
2013-06-26 05:53:00,64.8,51.5,30.02,ENE,74,5.0,5.0,62,0.00,FEW,,0.00,11.0,WeatherDisplay:10.37,2013-06-26 03:53:00,
2013-06-26 05:54:00,64.8,51.5,30.02,ENE,66,5.0,5.0,62,0.00,FEW,,0.00,11.0,WeatherDisplay:10.37,2013-06-26 03:54:00,
2013-06-26 05:55:00,64.8,51.0,30.02,NE,56,8.1,8.1,61,0.00,FEW,,0.00,12.0,WeatherDisplay:10.37,2013-06-26 03:55:00,
2013-06-26 05:57:00,64.8,51.0,30.02,NE,48,4.0,4.0,61,0.00,FEW,,0.00,12.0,WeatherDisplay:10.37,2013-06-26 03:57:00,
2013-06-26 05:58:00,64.9,51.1,30.02,NE,51,4.6,4.6,61,0.00,FEW,,0.00,14.0,WeatherDisplay:10.37,2013-06-26 03:58:00,
2013-06-26 05:59:00,64.9,51.1,30.02,NE,38,9.0,9.0,61,0.00,FEW,,0.00,14.0,WeatherDisplay:10.37,2013-06-26 03:59:00,
2013-06-26 06:00:00,64.9,51.1,30.02,NE,42,9.2,9.2,61,0.00,FEW,,0.00,16.0,WeatherDisplay:10.37,2013-06-26 04:00:00,
2013-06-26 06:01:00,64.9,51.1,30.02,NE,50,8.1,8.1,61,0.00,FEW,,0.00,16.0,WeatherDisplay:10.37,2013-06-26 04:01:00,
2013-06-26 06:06:00,64.9,51.1,30.02,East,80,8.1,8.1,61,0.00,FEW,,0.00,26.0,WeatherDisplay:10.37,2013-06-26 04:06:00,
2013-06-26 06:11:00,65.0,51.2,30.02,ENE,61,5.8,5.8,61,0.00,FEW,,0.00,39.0,WeatherDisplay:10.37,2013-06-26 04:11:00,
2013-06-26 06:16:00,65.1,51.3,30.02,NE,38,6.0,6.0,61,0.00,FEW,,0.00,53.0,WeatherDisplay:10.37,2013-06-26 04:16:00,
2013-06-26 06:21:00,65.3,51.1,30.02,ENE,59,7.0,7.0,60,0.00,FEW,,0.00,70.0,WeatherDisplay:10.37,2013-06-26 04:21:00,
2013-06-26 06:22:00,65.3,51.1,30.02,ENE,61,6.9,6.9,60,0.00,FEW,,0.00,70.0,WeatherDisplay:10.37,2013-06-26 04:22:00,
2013-06-26 06:26:00,65.4,51.1,30.02,ENE,65,7.0,7.0,60,0.00,FEW,,0.00,81.0,WeatherDisplay:10.37,2013-06-26 04:26:00,
2013-06-26 06:27:00,65.4,51.1,30.02,ENE,71,7.0,7.0,60,0.00,FEW,,0.00,84.0,WeatherDisplay:10.37,2013-06-26 04:27:00,
2013-06-26 06:31:00,65.5,51.2,30.02,ENE,65,4.6,4.6,60,0.00,FEW,,0.00,97.0,WeatherDisplay:10.37,2013-06-26 04:31:00,
2013-06-26 06:32:00,65.5,51.2,30.02,ENE,58,5.8,5.8,60,0.00,FEW,,0.00,98.0,WeatherDisplay:10.37,2013-06-26 04:32:00,
2013-06-26 06:36:00,65.6,50.9,30.02,ENE,71,6.9,6.9,59,0.00,FEW,,0.00,113.0,WeatherDisplay:10.37,2013-06-26 04:36:00,
2013-06-26 06:37:00,65.7,51.4,30.02,ENE,61,6.9,6.9,60,0.00,FEW,,0.00,113.0,WeatherDisplay:10.37,2013-06-26 04:37:00,
2013-06-26 06:41:00,65.7,51.0,30.02,East,80,6.9,6.9,59,0.00,FEW,,0.00,127.0,WeatherDisplay:10.37,2013-06-26 04:41:00,
2013-06-26 06:42:00,65.8,51.1,30.02,ENE,78,6.9,6.9,59,0.00,FEW,,0.00,132.0,WeatherDisplay:10.37,2013-06-26 04:42:00,
2013-06-26 06:47:00,65.9,51.2,30.02,NE,51,9.2,9.2,59,0.00,FEW,,0.00,148.0,WeatherDisplay:10.37,2013-06-26 04:47:00,
2013-06-26 06:52:00,66.1,50.9,30.02,NE,43,13.8,13.8,58,0.00,CLR,,0.00,165.0,WeatherDisplay:10.37,2013-06-26 04:52:00,
2013-06-26 06:53:00,66.1,51.4,30.02,NE,54,10.4,10.4,59,0.00,CLR,,0.00,169.0,WeatherDisplay:10.37,2013-06-26 04:53:00,
2013-06-26 06:57:00,66.1,51.4,30.02,NE,56,10.0,10.0,59,0.00,CLR,,0.00,179.0,WeatherDisplay:10.37,2013-06-26 04:57:00,
2013-06-26 06:58:00,66.1,51.4,30.02,NE,35,11.5,11.5,59,0.00,CLR,,0.00,183.0,WeatherDisplay:10.37,2013-06-26 04:58:00,
2013-06-26 07:02:00,66.1,51.4,30.02,ENE,63,10.4,10.4,59,0.00,CLR,,0.00,195.0,WeatherDisplay:10.37,2013-06-26 05:02:00,
2013-06-26 07:03:00,66.1,51.4,30.02,NE,53,11.5,11.5,59,0.00,CLR,,0.00,195.0,WeatherDisplay:10.37,2013-06-26 05:03:00,
2013-06-26 07:07:00,66.0,51.7,30.02,NE,46,10.4,10.4,60,0.00,CLR,,0.00,209.0,WeatherDisplay:10.37,2013-06-26 05:07:00,
2013-06-26 07:08:00,66.0,51.7,30.02,NE,35,10.4,10.4,60,0.00,CLR,,0.00,213.0,WeatherDisplay:10.37,2013-06-26 05:08:00,
2013-06-26 07:12:00,65.9,52.1,30.02,NNE,19,8.1,8.1,61,0.00,CLR,,0.00,227.0,WeatherDisplay:10.37,2013-06-26 05:12:00,
2013-06-26 07:13:00,65.9,52.1,30.02,NNE,22,8.1,8.1,61,0.00,CLR,,0.00,229.0,WeatherDisplay:10.37,2013-06-26 05:13:00,
2013-06-26 07:17:00,66.0,52.2,30.02,NNE,17,6.9,6.9,61,0.00,CLR,,0.00,239.0,WeatherDisplay:10.37,2013-06-26 05:17:00,
2013-06-26 07:18:00,66.0,52.2,30.02,North,10,6.9,6.9,61,0.00,CLR,,0.00,239.0,WeatherDisplay:10.37,2013-06-26 05:18:00,
2013-06-26 07:22:00,66.3,52.4,30.02,NE,53,5.0,5.0,61,0.00,CLR,,0.00,257.0,WeatherDisplay:10.37,2013-06-26 05:22:00,
2013-06-26 07:23:00,66.4,52.1,30.02,ENE,67,4.6,4.6,60,0.00,CLR,,0.00,258.0,WeatherDisplay:10.37,2013-06-26 05:23:00,
2013-06-26 07:24:00,66.4,52.1,30.02,NE,49,5.0,5.0,60,0.00,CLR,,0.00,260.0,WeatherDisplay:10.37,2013-06-26 05:24:00,
2013-06-26 07:27:00,66.6,52.3,30.02,ENE,78,8.1,8.1,60,0.00,CLR,,0.00,271.0,WeatherDisplay:10.37,2013-06-26 05:27:00,
2013-06-26 07:28:00,66.7,52.4,30.02,NE,56,8.1,8.1,60,0.00,CLR,,0.00,272.0,WeatherDisplay:10.37,2013-06-26 05:28:00,
2013-06-26 07:29:00,66.7,52.4,30.02,ENE,63,8.1,8.1,60,0.00,CLR,,0.00,272.0,WeatherDisplay:10.37,2013-06-26 05:29:00,
2013-06-26 07:32:00,66.9,52.6,30.02,NE,47,5.8,5.8,60,0.00,FEW,,0.00,200.0,WeatherDisplay:10.37,2013-06-26 05:32:00,
2013-06-26 07:33:00,67.0,52.7,30.02,ENE,73,4.6,4.6,60,0.00,FEW,,0.00,221.0,WeatherDisplay:10.37,2013-06-26 05:33:00,
2013-06-26 07:34:00,67.1,52.7,30.02,ENE,64,4.6,4.6,60,0.00,FEW,,0.00,258.0,WeatherDisplay:10.37,2013-06-26 05:34:00,
2013-06-26 07:37:00,67.4,52.6,30.02,ENE,67,4.6,4.6,59,0.00,FEW,,0.00,243.0,WeatherDisplay:10.37,2013-06-26 05:37:00,
2013-06-26 07:38:00,67.5,52.7,30.02,East,90,4.6,4.6,59,0.00,FEW,,0.00,227.0,WeatherDisplay:10.37,2013-06-26 05:38:00,
2013-06-26 07:39:00,67.5,52.7,30.02,ENE,77,6.0,6.0,59,0.00,FEW,,0.00,258.0,WeatherDisplay:10.37,2013-06-26 05:39:00,
2013-06-26 07:42:00,67.8,52.5,30.02,ENE,76,5.8,5.8,58,0.00,FEW,,0.00,313.0,WeatherDisplay:10.37,2013-06-26 05:42:00,
2013-06-26 07:43:00,67.8,52.5,30.02,NE,43,6.9,6.9,58,0.00,FEW,,0.00,315.0,WeatherDisplay:10.37,2013-06-26 05:43:00,
2013-06-26 07:44:00,67.8,52.5,30.02,ENE,61,8.0,8.0,58,0.00,FEW,,0.00,315.0,WeatherDisplay:10.37,2013-06-26 05:44:00,
2013-06-26 07:48:00,68.0,52.2,30.02,NE,36,9.2,9.2,57,0.00,FEW,,0.00,327.0,WeatherDisplay:10.37,2013-06-26 05:48:00,
2013-06-26 07:49:00,68.0,52.2,30.02,NE,54,10.4,10.4,57,0.00,FEW,,0.00,327.0,WeatherDisplay:10.37,2013-06-26 05:49:00,
2013-06-26 07:53:00,68.0,52.2,30.02,NNE,31,4.6,4.6,57,0.00,FEW,,0.00,309.0,WeatherDisplay:10.37,2013-06-26 05:53:00,
2013-06-26 07:54:00,68.0,52.2,30.03,ENE,65,3.5,3.5,57,0.00,FEW,,0.00,295.0,WeatherDisplay:10.37,2013-06-26 05:54:00,
2013-06-26 07:55:00,68.0,52.2,30.02,NE,52,7.0,7.0,57,0.00,FEW,,0.00,274.0,WeatherDisplay:10.37,2013-06-26 05:55:00,
2013-06-26 07:58:00,68.1,52.3,30.03,NNE,23,4.6,4.6,57,0.00,FEW,,0.00,283.0,WeatherDisplay:10.37,2013-06-26 05:58:00,
2013-06-26 07:59:00,68.2,52.4,30.03,ENE,76,1.1,0.0,57,0.00,FEW,,0.00,281.0,WeatherDisplay:10.37,2013-06-26 05:59:00,
2013-06-26 08:00:00,68.2,52.4,30.03,ENE,76,1.1,0.0,57,0.00,FEW,,0.00,243.0,WeatherDisplay:10.37,2013-06-26 06:00:00,
2013-06-26 08:01:00,68.3,52.5,30.03,East,80,0.0,0.0,57,0.00,FEW,,0.00,144.0,WeatherDisplay:10.37,2013-06-26 06:01:00,
2013-06-26 08:03:00,68.4,52.6,30.03,NE,55,8.1,8.1,57,0.00,FEW,,0.00,49.0,WeatherDisplay:10.37,2013-06-26 06:03:00,
2013-06-26 08:04:00,68.4,52.1,30.03,NNE,29,6.9,6.9,56,0.00,FEW,,0.00,49.0,WeatherDisplay:10.37,2013-06-26 06:04:00,
2013-06-26 08:05:00,68.4,52.1,30.03,NNE,30,4.0,4.0,56,0.00,FEW,,0.00,49.0,WeatherDisplay:10.37,2013-06-26 06:05:00,
2013-06-26 08:06:00,68.4,51.6,30.03,NE,42,4.6,4.6,55,0.00,FEW,,0.00,49.0,WeatherDisplay:10.37,2013-06-26 06:06:00,
2013-06-26 08:08:00,68.4,51.6,30.03,ENE,57,5.0,5.0,55,0.00,FEW,,0.00,49.0,WeatherDisplay:10.37,2013-06-26 06:08:00,
2013-06-26 08:09:00,68.5,52.2,30.03,ENE,64,4.6,4.6,56,0.00,FEW,,0.00,49.0,WeatherDisplay:10.37,2013-06-26 06:09:00,
2013-06-26 08:10:00,68.5,52.2,30.03,ENE,62,4.6,4.6,56,0.00,FEW,,0.00,49.0,WeatherDisplay:10.37,2013-06-26 06:10:00,
2013-06-26 08:11:00,68.5,52.2,30.03,NNE,22,4.6,4.6,56,0.00,SCT,,0.00,49.0,WeatherDisplay:10.37,2013-06-26 06:11:00,
2013-06-26 08:13:00,68.6,51.8,30.03,NE,34,5.8,5.8,55,0.00,BKN,,0.00,51.0,WeatherDisplay:10.37,2013-06-26 06:13:00,
2013-06-26 08:14:00,68.6,51.8,30.03,NE,47,6.9,6.9,55,0.00,BKN,,0.00,51.0,WeatherDisplay:10.37,2013-06-26 06:14:00,
2013-06-26 08:15:00,68.7,51.9,30.03,ENE,65,6.9,6.9,55,0.00,BKN,,0.00,51.0,WeatherDisplay:10.37,2013-06-26 06:15:00,
2013-06-26 08:16:00,68.7,51.9,30.03,NE,39,6.9,6.9,55,0.00,BKN,,0.00,51.0,WeatherDisplay:10.37,2013-06-26 06:16:00,
2013-06-26 08:17:00,68.7,51.9,30.03,NNE,32,6.0,6.0,55,0.00,BKN,,0.00,51.0,WeatherDisplay:10.37,2013-06-26 06:17:00,
2013-06-26 08:18:00,68.7,51.9,30.03,ENE,59,5.8,5.8,55,0.00,BKN,,0.00,51.0,WeatherDisplay:10.37,2013-06-26 06:18:00,
2013-06-26 08:19:00,68.7,51.9,30.03,NE,46,6.9,6.9,55,0.00,BKN,,0.00,53.0,WeatherDisplay:10.37,2013-06-26 06:19:00,
2013-06-26 08:20:00,68.8,52.0,30.03,ENE,65,6.9,6.9,55,0.00,BKN,,0.00,53.0,WeatherDisplay:10.37,2013-06-26 06:20:00,
2013-06-26 08:21:00,68.9,52.6,30.03,NE,45,3.5,3.5,56,0.00,BKN,,0.00,53.0,WeatherDisplay:10.37,2013-06-26 06:21:00,
2013-06-26 08:22:00,68.9,52.6,30.03,North,355,5.0,5.0,56,0.00,BKN,,0.00,53.0,WeatherDisplay:10.37,2013-06-26 06:22:00,
2013-06-26 08:23:00,69.0,52.6,30.03,NE,56,8.0,8.0,56,0.00,BKN,,0.00,54.0,WeatherDisplay:10.37,2013-06-26 06:23:00,
2013-06-26 08:24:00,69.1,52.2,30.03,NE,50,7.0,7.0,55,0.00,BKN,,0.00,54.0,WeatherDisplay:10.37,2013-06-26 06:24:00,
2013-06-26 08:25:00,69.1,52.2,30.03,NE,55,8.1,8.1,55,0.00,BKN,,0.00,54.0,WeatherDisplay:10.37,2013-06-26 06:25:00,
2013-06-26 08:26:00,69.1,52.2,30.03,ENE,64,8.1,8.1,55,0.00,BKN,,0.00,54.0,WeatherDisplay:10.37,2013-06-26 06:26:00,
2013-06-26 08:27:00,69.1,52.7,30.03,NE,50,8.1,8.1,56,0.00,BKN,,0.00,56.0,WeatherDisplay:10.37,2013-06-26 06:27:00,
2013-06-26 08:28:00,69.2,52.8,30.03,ENE,59,8.1,8.1,56,0.00,BKN,,0.00,56.0,WeatherDisplay:10.37,2013-06-26 06:28:00,
2013-06-26 08:29:00,69.3,52.9,30.03,NE,55,8.1,8.1,56,0.00,BKN,,0.00,56.0,WeatherDisplay:10.37,2013-06-26 06:29:00,
2013-06-26 08:30:00,69.3,52.9,30.03,ENE,63,8.1,8.1,56,0.00,BKN,,0.00,56.0,WeatherDisplay:10.37,2013-06-26 06:30:00,
2013-06-26 08:31:00,69.3,52.9,30.03,NNW,348,9.2,9.2,56,0.00,BKN,,0.00,56.0,WeatherDisplay:10.37,2013-06-26 06:31:00,
2013-06-26 08:32:00,69.3,52.9,30.03,NNE,15,8.1,8.1,56,0.00,BKN,,0.00,56.0,WeatherDisplay:10.37,2013-06-26 06:32:00,
2013-06-26 08:33:00,69.3,52.9,30.03,NNE,19,5.8,5.8,56,0.00,BKN,,0.00,56.0,WeatherDisplay:10.37,2013-06-26 06:33:00,
2013-06-26 08:34:00,69.4,53.0,30.03,NNE,13,7.0,7.0,56,0.00,BKN,,0.00,58.0,WeatherDisplay:10.37,2013-06-26 06:34:00,
2013-06-26 08:36:00,69.5,53.1,30.03,ENE,57,6.9,6.9,56,0.00,BKN,,0.00,58.0,WeatherDisplay:10.37,2013-06-26 06:36:00,
2013-06-26 08:37:00,69.6,53.2,30.03,North,9,4.0,4.0,56,0.00,BKN,,0.00,58.0,WeatherDisplay:10.37,2013-06-26 06:37:00,
2013-06-26 08:38:00,69.7,53.3,30.03,NNE,16,6.0,6.0,56,0.00,BKN,,0.00,58.0,WeatherDisplay:10.37,2013-06-26 06:38:00,
2013-06-26 08:40:00,69.8,53.4,30.03,NE,49,5.8,5.8,56,0.00,BKN,,0.00,58.0,WeatherDisplay:10.37,2013-06-26 06:40:00,
2013-06-26 08:41:00,69.8,52.9,30.03,NNE,15,5.8,5.8,55,0.00,BKN,,0.00,58.0,WeatherDisplay:10.37,2013-06-26 06:41:00,
2013-06-26 08:42:00,69.9,53.0,30.03,NNE,22,3.5,3.5,55,0.00,BKN,,0.00,60.0,WeatherDisplay:10.37,2013-06-26 06:42:00,
2013-06-26 08:44:00,70.0,53.1,30.03,NNE,31,3.5,0.0,55,0.00,BKN,,0.00,60.0,WeatherDisplay:10.37,2013-06-26 06:44:00,
2013-06-26 08:45:00,70.1,53.2,30.03,NE,37,6.9,6.9,55,0.00,BKN,,0.00,62.0,WeatherDisplay:10.37,2013-06-26 06:45:00,
2013-06-26 08:46:00,70.2,53.3,30.03,North,5,5.0,5.0,55,0.00,BKN,,0.00,62.0,WeatherDisplay:10.37,2013-06-26 06:46:00,
2013-06-26 08:47:00,70.2,53.3,30.03,NNW,338,3.5,3.5,55,0.00,BKN,,0.00,62.0,WeatherDisplay:10.37,2013-06-26 06:47:00,
2013-06-26 08:49:00,70.3,52.9,30.03,ENE,69,2.0,0.0,54,0.00,BKN,,0.00,62.0,WeatherDisplay:10.37,2013-06-26 06:49:00,
2013-06-26 08:50:00,70.4,53.0,30.04,ENE,71,2.3,2.3,54,0.00,BKN,,0.00,63.0,WeatherDisplay:10.37,2013-06-26 06:50:00,
2013-06-26 08:51:00,70.5,53.1,30.03,NE,38,3.5,3.5,54,0.00,BKN,,0.00,63.0,WeatherDisplay:10.37,2013-06-26 06:51:00,
2013-06-26 08:52:00,70.7,53.7,30.03,NE,47,3.5,3.5,55,0.00,BKN,,0.00,63.0,WeatherDisplay:10.37,2013-06-26 06:52:00,
2013-06-26 08:54:00,70.9,53.4,30.04,ENE,71,6.0,6.0,54,0.00,BKN,,0.00,63.0,WeatherDisplay:10.37,2013-06-26 06:54:00,
2013-06-26 08:55:00,70.9,53.4,30.04,ENE,67,4.6,4.6,54,0.00,BKN,,0.00,63.0,WeatherDisplay:10.37,2013-06-26 06:55:00,
2013-06-26 08:56:00,70.9,53.4,30.03,ENE,57,2.3,0.0,54,0.00,BKN,,0.00,63.0,WeatherDisplay:10.37,2013-06-26 06:56:00,
2013-06-26 08:57:00,71.0,53.5,30.03,East,80,2.3,2.3,54,0.00,BKN,,0.00,65.0,WeatherDisplay:10.37,2013-06-26 06:57:00,
2013-06-26 08:59:00,71.2,53.2,30.04,ENE,61,4.6,4.6,53,0.00,BKN,,0.00,65.0,WeatherDisplay:10.37,2013-06-26 06:59:00,
2013-06-26 09:00:00,71.2,53.2,30.04,ENE,61,4.6,4.6,53,0.00,BKN,,0.00,65.0,WeatherDisplay:10.37,2013-06-26 07:00:00,
2013-06-26 09:02:00,71.4,53.4,30.04,East,79,0.0,0.0,53,0.00,BKN,,0.00,67.0,WeatherDisplay:10.37,2013-06-26 07:02:00,
2013-06-26 09:03:00,71.9,53.8,30.04,NE,54,2.3,2.3,53,0.00,BKN,,0.00,69.0,WeatherDisplay:10.37,2013-06-26 07:03:00,
2013-06-26 09:05:00,72.1,53.5,30.04,NE,51,4.0,4.0,52,0.00,BKN,,0.00,69.0,WeatherDisplay:10.37,2013-06-26 07:05:00,
2013-06-26 09:07:00,72.3,54.2,30.04,NNE,29,4.6,4.6,53,0.00,BKN,,0.00,69.0,WeatherDisplay:10.37,2013-06-26 07:07:00,
2013-06-26 09:08:00,72.3,54.2,30.04,NE,51,6.9,6.9,53,0.00,SCT,,0.00,534.0,WeatherDisplay:10.37,2013-06-26 07:08:00,
2013-06-26 09:09:00,72.3,54.2,30.04,NE,44,6.9,6.9,53,0.00,FEW,,0.00,538.0,WeatherDisplay:10.37,2013-06-26 07:09:00,
2013-06-26 09:10:00,72.3,54.2,30.04,NE,55,4.6,4.6,53,0.00,FEW,,0.00,543.0,WeatherDisplay:10.37,2013-06-26 07:10:00,
2013-06-26 09:11:00,72.3,54.2,30.04,NE,53,0.0,0.0,53,0.00,FEW,,0.00,522.0,WeatherDisplay:10.37,2013-06-26 07:11:00,
2013-06-26 09:12:00,72.4,54.3,30.04,NE,53,0.0,0.0,53,0.00,FEW,,0.00,522.0,WeatherDisplay:10.37,2013-06-26 07:12:00,
2013-06-26 09:13:00,72.4,54.3,30.04,NE,53,0.0,0.0,53,0.00,FEW,,0.00,522.0,WeatherDisplay:10.37,2013-06-26 07:13:00,
2013-06-26 09:14:00,72.6,54.5,30.04,NNE,15,3.0,3.0,53,0.00,FEW,,0.00,522.0,WeatherDisplay:10.37,2013-06-26 07:14:00,
2013-06-26 09:15:00,72.7,54.1,30.04,ENE,63,5.0,5.0,52,0.00,FEW,,0.00,225.0,WeatherDisplay:10.37,2013-06-26 07:15:00,
2013-06-26 09:16:00,72.7,53.5,30.04,NNE,16,5.8,5.8,51,0.00,FEW,,0.00,225.0,WeatherDisplay:10.37,2013-06-26 07:16:00,
2013-06-26 09:17:00,72.7,53.5,30.04,NE,38,5.8,5.8,51,0.00,FEW,,0.00,225.0,WeatherDisplay:10.37,2013-06-26 07:17:00,
2013-06-26 09:18:00,72.7,53.5,30.04,ENE,59,4.6,4.6,51,0.00,FEW,,0.00,225.0,WeatherDisplay:10.37,2013-06-26 07:18:00,
2013-06-26 09:19:00,72.7,53.5,30.04,ENE,60,1.1,0.0,51,0.00,FEW,,0.00,485.0,WeatherDisplay:10.37,2013-06-26 07:19:00,
2013-06-26 09:20:00,72.8,54.1,30.04,NNE,24,6.0,6.0,52,0.00,FEW,,0.00,485.0,WeatherDisplay:10.37,2013-06-26 07:20:00,
2013-06-26 09:22:00,72.8,54.1,30.04,ENE,57,5.8,5.8,52,0.00,FEW,,0.00,76.0,WeatherDisplay:10.37,2013-06-26 07:22:00,
2013-06-26 09:23:00,72.9,54.2,30.03,NW,326,0.0,0.0,52,0.00,FEW,,0.00,76.0,WeatherDisplay:10.37,2013-06-26 07:23:00,
2013-06-26 09:24:00,72.9,54.2,30.03,NNW,329,0.0,0.0,52,0.00,FEW,,0.00,76.0,WeatherDisplay:10.37,2013-06-26 07:24:00,
2013-06-26 09:25:00,73.0,53.8,30.03,WNW,296,3.0,3.0,51,0.00,FEW,,0.00,76.0,WeatherDisplay:10.37,2013-06-26 07:25:00,
2013-06-26 09:27:00,73.1,54.4,30.03,North,11,3.5,3.5,52,0.00,FEW,,0.00,76.0,WeatherDisplay:10.37,2013-06-26 07:27:00,
2013-06-26 09:28:00,73.2,54.0,30.03,East,90,3.5,3.5,51,0.00,FEW,,0.00,77.0,WeatherDisplay:10.37,2013-06-26 07:28:00,
2013-06-26 09:29:00,73.1,53.4,30.03,East,89,3.5,3.5,50,0.00,FEW,,0.00,77.0,WeatherDisplay:10.37,2013-06-26 07:29:00,
2013-06-26 09:30:00,73.1,53.4,30.03,East,96,3.5,0.0,50,0.00,FEW,,0.00,77.0,WeatherDisplay:10.37,2013-06-26 07:30:00,
2013-06-26 09:32:00,73.1,53.9,30.03,NW,326,1.1,0.0,51,0.00,SCT,,0.00,79.0,WeatherDisplay:10.37,2013-06-26 07:32:00,
2013-06-26 09:33:00,73.3,54.1,30.03,NE,42,3.5,3.5,51,0.00,BKN,,0.00,81.0,WeatherDisplay:10.37,2013-06-26 07:33:00,
2013-06-26 09:34:00,73.4,54.7,30.03,WSW,258,1.1,0.0,52,0.00,BKN,,0.00,81.0,WeatherDisplay:10.37,2013-06-26 07:34:00,
2013-06-26 09:35:00,73.6,54.4,30.03,NE,38,5.0,5.0,51,0.00,BKN,,0.00,81.0,WeatherDisplay:10.37,2013-06-26 07:35:00,
2013-06-26 09:37:00,73.6,54.4,30.03,NE,51,5.8,5.8,51,0.00,BKN,,0.00,84.0,WeatherDisplay:10.37,2013-06-26 07:37:00,
2013-06-26 09:38:00,73.6,54.4,30.03,NE,51,3.5,3.5,51,0.00,BKN,,0.00,84.0,WeatherDisplay:10.37,2013-06-26 07:38:00,
2013-06-26 09:40:00,73.7,54.4,30.03,NNE,27,4.0,4.0,51,0.00,BKN,,0.00,134.0,WeatherDisplay:10.37,2013-06-26 07:40:00,
2013-06-26 09:41:00,73.7,54.4,30.03,NNE,20,5.8,5.8,51,0.00,BKN,,0.00,132.0,WeatherDisplay:10.37,2013-06-26 07:41:00,
2013-06-26 09:42:00,73.8,54.5,30.03,North,5,5.8,5.8,51,0.00,BKN,,0.00,90.0,WeatherDisplay:10.37,2013-06-26 07:42:00,
2013-06-26 09:43:00,73.8,54.5,30.03,North,360,4.0,4.0,51,0.00,BKN,,0.00,90.0,WeatherDisplay:10.37,2013-06-26 07:43:00,
2013-06-26 09:44:00,73.8,54.5,30.03,North,349,3.5,3.5,51,0.00,BKN,,0.00,111.0,WeatherDisplay:10.37,2013-06-26 07:44:00,
2013-06-26 09:46:00,73.9,54.6,30.03,NW,315,5.0,5.0,51,0.00,BKN,,0.00,113.0,WeatherDisplay:10.37,2013-06-26 07:46:00,
2013-06-26 09:47:00,74.1,54.8,30.03,NW,318,0.0,0.0,51,0.00,SCT,,0.00,302.0,WeatherDisplay:10.37,2013-06-26 07:47:00,
2013-06-26 09:48:00,74.1,54.8,30.03,ENE,58,7.0,7.0,51,0.00,SCT,,0.00,387.0,WeatherDisplay:10.37,2013-06-26 07:48:00,
2013-06-26 09:49:00,74.1,54.8,30.03,ENE,65,7.0,7.0,51,0.00,SCT,,0.00,387.0,WeatherDisplay:10.37,2013-06-26 07:49:00,
2013-06-26 09:51:00,74.1,53.7,30.03,ENE,73,4.6,4.6,49,0.00,FEW,,0.00,466.0,WeatherDisplay:10.37,2013-06-26 07:51:00,
2013-06-26 09:52:00,74.1,53.7,30.03,ENE,71,4.6,4.6,49,0.00,FEW,,0.00,534.0,WeatherDisplay:10.37,2013-06-26 07:52:00,
2013-06-26 09:53:00,74.0,53.6,30.03,ENE,58,1.1,1.1,49,0.00,FEW,,0.00,534.0,WeatherDisplay:10.37,2013-06-26 07:53:00,
2013-06-26 09:54:00,74.1,53.7,30.03,NE,54,1.1,0.0,49,0.00,FEW,,0.00,534.0,WeatherDisplay:10.37,2013-06-26 07:54:00,
2013-06-26 09:56:00,74.2,53.8,30.03,SE,138,2.3,2.3,49,0.00,FEW,,0.00,635.0,WeatherDisplay:10.37,2013-06-26 07:56:00,
2013-06-26 09:58:00,74.3,53.9,30.03,SE,144,1.1,0.0,49,0.00,FEW,,0.00,635.0,WeatherDisplay:10.37,2013-06-26 07:58:00,
2013-06-26 09:59:00,74.6,54.2,30.03,SSW,210,0.0,0.0,49,0.00,FEW,,0.00,422.0,WeatherDisplay:10.37,2013-06-26 07:59:00,
2013-06-26 10:01:00,75.4,54.3,30.03,NE,35,3.5,3.5,48,0.00,FEW,,0.00,322.0,WeatherDisplay:10.37,2013-06-26 08:01:00,
2013-06-26 10:03:00,75.6,53.9,30.03,North,360,4.6,4.6,47,0.00,FEW,,0.00,93.0,WeatherDisplay:10.37,2013-06-26 08:03:00,
2013-06-26 10:04:00,75.7,54.0,30.03,WNW,284,3.5,3.5,47,0.00,FEW,,0.00,93.0,WeatherDisplay:10.37,2013-06-26 08:04:00,
2013-06-26 10:06:00,75.9,54.2,30.03,North,360,7.0,7.0,47,0.00,FEW,,0.00,93.0,WeatherDisplay:10.37,2013-06-26 08:06:00,
2013-06-26 10:07:00,75.9,54.2,30.03,NNE,22,6.9,6.9,47,0.00,FEW,,0.00,93.0,WeatherDisplay:10.37,2013-06-26 08:07:00,
2013-06-26 10:08:00,76.0,53.7,30.03,NNE,13,6.9,6.9,46,0.00,FEW,,0.00,93.0,WeatherDisplay:10.37,2013-06-26 08:08:00,
2013-06-26 10:09:00,76.1,53.8,30.03,NNE,13,5.8,5.8,46,0.00,FEW,,0.00,95.0,WeatherDisplay:10.37,2013-06-26 08:09:00,
2013-06-26 10:12:00,76.3,54.0,30.03,South,179,3.5,3.5,46,0.00,BKN,,0.00,97.0,WeatherDisplay:10.37,2013-06-26 08:12:00,
2013-06-26 10:13:00,76.5,54.2,30.03,SSE,153,5.8,5.8,46,0.00,BKN,,0.00,97.0,WeatherDisplay:10.37,2013-06-26 08:13:00,
2013-06-26 10:14:00,76.5,54.2,30.03,SE,144,7.0,7.0,46,0.00,BKN,,0.00,97.0,WeatherDisplay:10.37,2013-06-26 08:14:00,
2013-06-26 10:15:00,76.6,54.3,30.03,SE,135,8.1,8.1,46,0.00,BKN,,0.00,97.0,WeatherDisplay:10.37,2013-06-26 08:15:00,
2013-06-26 10:17:00,76.7,54.4,30.03,SE,138,8.1,8.1,46,0.00,SCT,,0.00,694.0,WeatherDisplay:10.37,2013-06-26 08:17:00,
2013-06-26 10:19:00,76.8,53.8,30.03,SSE,159,4.6,4.6,45,0.00,FEW,,0.00,693.0,WeatherDisplay:10.37,2013-06-26 08:19:00,
2013-06-26 10:20:00,76.9,53.9,30.03,SE,130,8.1,8.1,45,0.00,FEW,,0.00,694.0,WeatherDisplay:10.37,2013-06-26 08:20:00,
2013-06-26 10:22:00,76.9,53.9,30.04,SSE,148,9.2,9.2,45,0.00,FEW,,0.00,708.0,WeatherDisplay:10.37,2013-06-26 08:22:00,
2013-06-26 10:23:00,77.0,54.0,30.03,South,173,9.2,9.2,45,0.00,FEW,,0.00,708.0,WeatherDisplay:10.37,2013-06-26 08:23:00,
2013-06-26 10:24:00,77.0,54.0,30.04,SSE,148,5.8,5.8,45,0.00,FEW,,0.00,712.0,WeatherDisplay:10.37,2013-06-26 08:24:00,
2013-06-26 10:25:00,77.0,54.0,30.03,ESE,109,8.0,8.0,45,0.00,FEW,,0.00,712.0,WeatherDisplay:10.37,2013-06-26 08:25:00,
2013-06-26 10:27:00,77.3,53.7,30.04,ESE,122,7.0,7.0,44,0.00,FEW,,0.00,710.0,WeatherDisplay:10.37,2013-06-26 08:27:00,
2013-06-26 10:28:00,77.3,53.7,30.04,SE,131,5.0,5.0,44,0.00,FEW,,0.00,710.0,WeatherDisplay:10.37,2013-06-26 08:28:00,
2013-06-26 10:29:00,77.3,53.7,30.03,ESE,123,6.9,6.9,44,0.00,FEW,,0.00,717.0,WeatherDisplay:10.37,2013-06-26 08:29:00,
2013-06-26 10:30:00,77.4,53.8,30.03,SSW,202,6.9,6.9,44,0.00,FEW,,0.00,717.0,WeatherDisplay:10.37,2013-06-26 08:30:00,
2013-06-26 10:31:00,77.5,53.9,30.04,SSE,147,5.8,5.8,44,0.00,FEW,,0.00,726.0,WeatherDisplay:10.37,2013-06-26 08:31:00,
2013-06-26 10:32:00,77.7,54.0,30.04,SE,140,1.1,0.0,44,0.00,FEW,,0.00,726.0,WeatherDisplay:10.37,2013-06-26 08:32:00,
2013-06-26 10:33:00,77.8,54.1,30.04,SE,146,1.1,0.0,44,0.00,FEW,,0.00,726.0,WeatherDisplay:10.37,2013-06-26 08:33:00,
2013-06-26 10:34:00,77.8,54.1,30.04,SE,139,8.1,8.1,44,0.00,FEW,,0.00,731.0,WeatherDisplay:10.37,2013-06-26 08:34:00,
2013-06-26 10:35:00,77.9,54.2,30.04,South,178,8.1,8.1,44,0.00,FEW,,0.00,731.0,WeatherDisplay:10.37,2013-06-26 08:35:00,
2013-06-26 10:36:00,78.0,54.3,30.04,East,83,5.8,5.8,44,0.00,FEW,,0.00,737.0,WeatherDisplay:10.37,2013-06-26 08:36:00,
2013-06-26 10:37:00,78.2,53.9,30.03,SSE,160,5.8,5.8,43,0.00,FEW,,0.00,742.0,WeatherDisplay:10.37,2013-06-26 08:37:00,
2013-06-26 10:38:00,78.2,53.9,30.03,SSE,161,5.8,5.8,43,0.00,FEW,,0.00,745.0,WeatherDisplay:10.37,2013-06-26 08:38:00,
2013-06-26 10:40:00,78.3,54.0,30.04,South,169,6.9,6.9,43,0.00,FEW,,0.00,749.0,WeatherDisplay:10.37,2013-06-26 08:40:00,
2013-06-26 10:41:00,78.4,53.4,30.04,SW,223,3.5,3.5,42,0.00,FEW,,0.00,749.0,WeatherDisplay:10.37,2013-06-26 08:41:00,
2013-06-26 10:42:00,78.5,53.5,30.04,ESE,111,3.5,3.5,42,0.00,FEW,,0.00,756.0,WeatherDisplay:10.37,2013-06-26 08:42:00,
2013-06-26 10:43:00,78.5,53.5,30.04,ESE,107,3.5,3.5,42,0.00,FEW,,0.00,752.0,WeatherDisplay:10.37,2013-06-26 08:43:00,
2013-06-26 10:45:00,78.4,53.4,30.03,East,94,1.1,1.1,42,0.00,FEW,,0.00,752.0,WeatherDisplay:10.37,2013-06-26 08:45:00,
2013-06-26 10:46:00,78.6,54.2,30.03,SE,140,3.5,3.5,43,0.00,FEW,,0.00,759.0,WeatherDisplay:10.37,2013-06-26 08:46:00,
2013-06-26 10:48:00,78.6,54.2,30.03,ENE,65,3.5,3.5,43,0.00,FEW,,0.00,759.0,WeatherDisplay:10.37,2013-06-26 08:48:00,
2013-06-26 10:50:00,78.6,53.6,30.03,ESE,118,3.5,3.5,42,0.00,FEW,,0.00,765.0,WeatherDisplay:10.37,2013-06-26 08:50:00,
2013-06-26 10:51:00,78.6,53.6,30.03,WSW,237,3.5,3.5,42,0.00,FEW,,0.00,765.0,WeatherDisplay:10.37,2013-06-26 08:51:00,
2013-06-26 10:53:00,79.0,53.9,30.03,SW,225,3.5,3.5,42,0.00,FEW,,0.00,772.0,WeatherDisplay:10.37,2013-06-26 08:53:00,
2013-06-26 10:55:00,79.1,54.0,30.03,SSE,157,1.1,0.0,42,0.00,FEW,,0.00,777.0,WeatherDisplay:10.37,2013-06-26 08:55:00,
2013-06-26 10:56:00,79.1,54.0,30.03,NE,45,4.0,4.0,42,0.00,FEW,,0.00,777.0,WeatherDisplay:10.37,2013-06-26 08:56:00,
2013-06-26 10:57:00,79.1,54.0,30.03,ENE,73,3.5,3.5,42,0.00,FEW,,0.00,786.0,WeatherDisplay:10.37,2013-06-26 08:57:00,
2013-06-26 10:58:00,79.1,54.0,30.03,NNW,344,3.5,0.0,42,0.00,FEW,,0.00,788.0,WeatherDisplay:10.37,2013-06-26 08:58:00,
2013-06-26 10:59:00,79.1,54.0,30.03,North,360,5.0,5.0,42,0.00,FEW,,0.00,788.0,WeatherDisplay:10.37,2013-06-26 08:59:00,
2013-06-26 11:00:00,79.2,54.1,30.03,NNW,340,4.6,4.6,42,0.00,FEW,,0.00,789.0,WeatherDisplay:10.37,2013-06-26 09:00:00,
2013-06-26 11:01:00,79.1,54.0,30.03,ENE,62,3.5,3.5,42,0.00,FEW,,0.00,789.0,WeatherDisplay:10.37,2013-06-26 09:01:00,
2013-06-26 11:02:00,79.0,53.9,30.03,North,5,3.5,3.7,42,0.00,FEW,,0.00,789.0,WeatherDisplay:10.37,2013-06-26 09:02:00,
2013-06-26 11:03:00,78.8,53.1,30.03,ENE,58,11.5,11.5,41,0.00,FEW,,0.00,789.0,WeatherDisplay:10.37,2013-06-26 09:03:00,
2013-06-26 11:04:00,78.8,53.1,30.03,ENE,76,11.5,11.5,41,0.00,FEW,,0.00,789.0,WeatherDisplay:10.37,2013-06-26 09:04:00,
2013-06-26 11:05:00,78.6,52.9,30.03,ENE,68,3.5,3.5,41,0.00,FEW,,0.00,791.0,WeatherDisplay:10.37,2013-06-26 09:05:00,
2013-06-26 11:06:00,78.6,52.9,30.03,East,87,3.5,3.5,41,0.00,FEW,,0.00,795.0,WeatherDisplay:10.37,2013-06-26 09:06:00,
2013-06-26 11:07:00,78.6,52.9,30.03,East,83,3.5,3.5,41,0.00,FEW,,0.00,795.0,WeatherDisplay:10.37,2013-06-26 09:07:00,
2013-06-26 11:08:00,78.6,52.9,30.03,East,83,0.0,0.0,41,0.00,FEW,,0.00,796.0,WeatherDisplay:10.37,2013-06-26 09:08:00,
2013-06-26 11:09:00,78.6,52.9,30.03,East,83,0.0,0.0,41,0.00,FEW,,0.00,796.0,WeatherDisplay:10.37,2013-06-26 09:09:00,
2013-06-26 11:10:00,78.6,53.6,30.03,West,259,3.5,3.5,42,0.00,FEW,,0.00,796.0,WeatherDisplay:10.37,2013-06-26 09:10:00,
2013-06-26 11:11:00,78.6,53.6,30.03,SW,224,3.5,3.5,42,0.00,FEW,,0.00,798.0,WeatherDisplay:10.37,2013-06-26 09:11:00,
2013-06-26 11:12:00,78.6,53.6,30.03,SW,224,3.5,3.5,42,0.00,FEW,,0.00,798.0,WeatherDisplay:10.37,2013-06-26 09:12:00,
2013-06-26 11:13:00,78.9,53.9,30.03,ENE,64,5.0,5.0,42,0.00,FEW,,0.00,800.0,WeatherDisplay:10.37,2013-06-26 09:13:00,
2013-06-26 11:14:00,79.0,53.3,30.03,NE,56,4.0,4.0,41,0.00,FEW,,0.00,800.0,WeatherDisplay:10.37,2013-06-26 09:14:00,
2013-06-26 11:15:00,79.0,53.3,30.03,ENE,76,3.5,3.5,41,0.00,FEW,,0.00,802.0,WeatherDisplay:10.37,2013-06-26 09:15:00,
2013-06-26 11:16:00,79.0,53.3,30.03,ENE,71,3.5,3.5,41,0.00,FEW,,0.00,803.0,WeatherDisplay:10.37,2013-06-26 09:16:00,
2013-06-26 11:17:00,79.0,53.3,30.03,ENE,74,3.5,3.5,41,0.00,FEW,,0.00,805.0,WeatherDisplay:10.37,2013-06-26 09:17:00,
2013-06-26 11:19:00,79.1,53.4,30.03,East,97,3.5,3.5,41,0.00,FEW,,0.00,805.0,WeatherDisplay:10.37,2013-06-26 09:19:00,
2013-06-26 11:21:00,79.3,53.6,30.03,NNE,16,6.9,6.9,41,0.00,FEW,,0.00,810.0,WeatherDisplay:10.37,2013-06-26 09:21:00,
2013-06-26 11:22:00,79.3,53.6,30.03,North,9,6.9,6.9,41,0.00,FEW,,0.00,810.0,WeatherDisplay:10.37,2013-06-26 09:22:00,
2013-06-26 11:24:00,79.2,53.5,30.03,NE,51,3.5,3.5,41,0.00,FEW,,0.00,814.0,WeatherDisplay:10.37,2013-06-26 09:24:00,
2013-06-26 11:25:00,79.1,53.4,30.03,NE,51,3.5,0.0,41,0.00,FEW,,0.00,812.0,WeatherDisplay:10.37,2013-06-26 09:25:00,
2013-06-26 11:27:00,79.1,53.4,30.03,SE,142,1.1,1.1,41,0.00,FEW,,0.00,816.0,WeatherDisplay:10.37,2013-06-26 09:27:00,
2013-06-26 11:28:00,79.4,53.6,30.03,SE,136,0.0,0.0,41,0.00,FEW,,0.00,816.0,WeatherDisplay:10.37,2013-06-26 09:28:00,
2013-06-26 11:30:00,79.9,54.8,30.03,SW,232,3.5,3.5,42,0.00,FEW,,0.00,819.0,WeatherDisplay:10.37,2013-06-26 09:30:00,
2013-06-26 11:32:00,80.1,54.3,30.03,NW,307,4.6,4.6,41,0.00,FEW,,0.00,830.0,WeatherDisplay:10.37,2013-06-26 09:32:00,
2013-06-26 11:33:00,80.1,54.3,30.03,NW,311,3.5,0.0,41,0.00,FEW,,0.00,835.0,WeatherDisplay:10.37,2013-06-26 09:33:00,
2013-06-26 11:35:00,79.9,54.8,30.03,NW,311,0.0,0.0,42,0.00,FEW,,0.00,835.0,WeatherDisplay:10.37,2013-06-26 09:35:00,
2013-06-26 11:37:00,80.4,54.5,30.03,SE,127,2.3,2.3,41,0.00,FEW,,0.00,844.0,WeatherDisplay:10.37,2013-06-26 09:37:00,
2013-06-26 11:38:00,80.6,54.0,30.03,SE,126,2.3,2.3,40,0.00,FEW,,0.00,849.0,WeatherDisplay:10.37,2013-06-26 09:38:00,
2013-06-26 11:40:00,80.7,54.1,30.03,South,190,0.0,0.0,40,0.00,FEW,,0.00,853.0,WeatherDisplay:10.37,2013-06-26 09:40:00,
2013-06-26 11:42:00,80.9,54.3,30.03,NNE,13,6.0,6.0,40,0.00,FEW,,0.00,874.0,WeatherDisplay:10.37,2013-06-26 09:42:00,
2013-06-26 11:43:00,80.9,54.3,30.03,North,355,5.8,5.8,40,0.00,FEW,,0.00,882.0,WeatherDisplay:10.37,2013-06-26 09:43:00,
2013-06-26 11:45:00,80.6,54.0,30.03,NW,325,4.6,4.6,40,0.00,FEW,,0.00,911.0,WeatherDisplay:10.37,2013-06-26 09:45:00,
2013-06-26 11:47:00,80.3,54.5,30.03,WSW,254,4.6,4.6,41,0.00,FEW,,0.00,911.0,WeatherDisplay:10.37,2013-06-26 09:47:00,
2013-06-26 11:48:00,80.3,54.5,30.03,WSW,257,4.6,0.0,41,0.00,FEW,,0.00,155.0,WeatherDisplay:10.37,2013-06-26 09:48:00,
2013-06-26 11:50:00,80.2,54.4,30.03,NNW,348,6.9,6.9,41,0.00,FEW,,0.00,158.0,WeatherDisplay:10.37,2013-06-26 09:50:00,
2013-06-26 11:53:00,80.1,54.3,30.03,WNW,290,0.0,0.0,41,0.00,FEW,,0.00,176.0,WeatherDisplay:10.37,2013-06-26 09:53:00,
2013-06-26 11:55:00,80.1,54.3,30.03,North,360,4.6,4.6,41,0.00,FEW,,0.00,190.0,WeatherDisplay:10.37,2013-06-26 09:55:00,
2013-06-26 11:56:00,80.0,53.5,30.03,North,360,3.5,3.5,40,0.00,FEW,,0.00,190.0,WeatherDisplay:10.37,2013-06-26 09:56:00,
2013-06-26 11:58:00,79.9,53.4,30.03,NNE,30,5.8,5.8,40,0.00,SCT,,0.00,202.0,WeatherDisplay:10.37,2013-06-26 09:58:00,
2013-06-26 11:59:00,79.8,53.3,30.03,North,355,5.8,5.8,40,0.00,SCT,,0.00,183.0,WeatherDisplay:10.37,2013-06-26 09:59:00,
2013-06-26 12:00:00,79.6,53.8,30.03,NW,321,4.6,4.6,41,0.00,SCT,,0.00,174.0,WeatherDisplay:10.37,2013-06-26 10:00:00,
2013-06-26 12:01:00,79.5,53.7,30.03,NNW,339,4.6,4.6,41,0.00,SCT,,0.00,165.0,WeatherDisplay:10.37,2013-06-26 10:01:00,
2013-06-26 12:03:00,79.3,53.6,30.03,North,10,3.5,3.5,41,0.00,SCT,,0.00,169.0,WeatherDisplay:10.37,2013-06-26 10:03:00,
2013-06-26 12:04:00,79.2,53.5,30.03,NNE,16,3.5,3.5,41,0.00,SCT,,0.00,183.0,WeatherDisplay:10.37,2013-06-26 10:04:00,
2013-06-26 12:05:00,79.1,53.4,30.03,ENE,58,3.5,3.5,41,0.00,SCT,,0.00,183.0,WeatherDisplay:10.37,2013-06-26 10:05:00,
2013-06-26 12:06:00,79.1,53.4,30.03,NNE,30,7.0,7.0,41,0.00,SCT,,0.00,195.0,WeatherDisplay:10.37,2013-06-26 10:06:00,
2013-06-26 12:08:00,79.0,53.3,30.03,East,96,8.1,8.1,41,0.00,SCT,,0.00,207.0,WeatherDisplay:10.37,2013-06-26 10:08:00,
2013-06-26 12:09:00,79.0,53.3,30.03,ENE,77,5.8,5.8,41,0.00,SCT,,0.00,214.0,WeatherDisplay:10.37,2013-06-26 10:09:00,
2013-06-26 12:10:00,79.0,53.3,30.03,East,96,8.0,8.0,41,0.00,SCT,,0.00,227.0,WeatherDisplay:10.37,2013-06-26 10:10:00,
2013-06-26 12:11:00,79.0,53.3,30.03,East,99,6.9,6.9,41,0.00,SCT,,0.00,227.0,WeatherDisplay:10.37,2013-06-26 10:11:00,
2013-06-26 12:13:00,79.0,53.3,30.03,ESE,107,4.6,4.6,41,0.00,SCT,,0.00,309.0,WeatherDisplay:10.37,2013-06-26 10:13:00,
2013-06-26 12:14:00,79.0,53.3,30.03,East,101,7.0,7.0,41,0.00,SCT,,0.00,309.0,WeatherDisplay:10.37,2013-06-26 10:14:00,
2013-06-26 12:15:00,79.1,53.4,30.03,ESE,123,6.9,6.9,41,0.00,FEW,,0.00,993.0,WeatherDisplay:10.37,2013-06-26 10:15:00,
2013-06-26 12:16:00,79.2,53.5,30.03,SE,138,6.9,6.9,41,0.00,FEW,,0.00,997.0,WeatherDisplay:10.37,2013-06-26 10:16:00,
2013-06-26 12:18:00,79.8,53.3,30.03,South,177,3.5,3.5,40,0.00,FEW,,0.00,995.0,WeatherDisplay:10.37,2013-06-26 10:18:00,
2013-06-26 12:19:00,80.2,53.7,30.03,SSE,150,1.0,0.0,40,0.00,FEW,,0.00,981.0,WeatherDisplay:10.37,2013-06-26 10:19:00,
2013-06-26 12:21:00,80.9,53.6,30.03,SSE,153,4.6,4.6,39,0.00,FEW,,0.00,981.0,WeatherDisplay:10.37,2013-06-26 10:21:00,
2013-06-26 12:23:00,81.3,54.0,30.03,South,184,5.8,5.8,39,0.00,FEW,,0.00,984.0,WeatherDisplay:10.37,2013-06-26 10:23:00,
2013-06-26 12:25:00,81.4,53.4,30.03,SE,146,3.5,3.5,38,0.00,FEW,,0.00,976.0,WeatherDisplay:10.37,2013-06-26 10:25:00,
2013-06-26 12:26:00,81.6,53.5,30.03,SSE,164,1.1,1.1,38,0.00,FEW,,0.00,970.0,WeatherDisplay:10.37,2013-06-26 10:26:00,
2013-06-26 12:28:00,81.7,53.6,30.03,SE,130,6.9,6.9,38,0.00,FEW,,0.00,979.0,WeatherDisplay:10.37,2013-06-26 10:28:00,
2013-06-26 12:30:00,81.9,53.8,30.03,ENE,77,3.5,3.5,38,0.00,FEW,,0.00,972.0,WeatherDisplay:10.37,2013-06-26 10:30:00,
2013-06-26 12:31:00,82.2,53.3,30.03,ENE,73,6.9,6.9,37,0.00,FEW,,0.00,976.0,WeatherDisplay:10.37,2013-06-26 10:31:00,
2013-06-26 12:33:00,82.6,52.9,30.03,SE,138,3.5,3.5,36,0.00,FEW,,0.00,976.0,WeatherDisplay:10.37,2013-06-26 10:33:00,
2013-06-26 12:34:00,82.6,52.9,30.03,ESE,121,3.5,3.5,36,0.00,FEW,,0.00,976.0,WeatherDisplay:10.37,2013-06-26 10:34:00,
2013-06-26 12:35:00,82.9,53.2,30.03,SE,136,1.1,0.0,36,0.00,FEW,,0.00,967.0,WeatherDisplay:10.37,2013-06-26 10:35:00,
2013-06-26 12:36:00,83.0,52.5,30.03,ENE,72,1.1,0.0,35,0.00,FEW,,0.00,969.0,WeatherDisplay:10.37,2013-06-26 10:36:00,
2013-06-26 12:37:00,82.8,52.3,30.03,South,182,1.1,0.0,35,0.00,FEW,,0.00,969.0,WeatherDisplay:10.37,2013-06-26 10:37:00,
2013-06-26 12:39:00,82.9,52.4,30.03,East,92,1.1,1.1,35,0.00,FEW,,0.00,977.0,WeatherDisplay:10.37,2013-06-26 10:39:00,
2013-06-26 12:40:00,83.0,52.5,30.03,ESE,117,1.1,1.1,35,0.00,FEW,,0.00,986.0,WeatherDisplay:10.37,2013-06-26 10:40:00,
2013-06-26 12:41:00,83.0,53.3,30.03,SE,127,4.0,4.0,36,0.00,FEW,,0.00,1005.0,WeatherDisplay:10.37,2013-06-26 10:41:00,
2013-06-26 12:42:00,83.1,53.4,30.03,East,90,3.5,3.5,36,0.00,FEW,,0.00,1005.0,WeatherDisplay:10.37,2013-06-26 10:42:00,
2013-06-26 12:44:00,83.2,52.7,30.03,NE,36,8.0,8.0,35,0.00,FEW,,0.00,1041.0,WeatherDisplay:10.37,2013-06-26 10:44:00,
2013-06-26 12:45:00,83.1,52.6,30.03,NNE,19,8.1,8.1,35,0.00,FEW,,0.00,1004.0,WeatherDisplay:10.37,2013-06-26 10:45:00,
2013-06-26 12:46:00,82.9,52.4,30.03,North,9,10.4,10.4,35,0.00,FEW,,0.00,1011.0,WeatherDisplay:10.37,2013-06-26 10:46:00,
2013-06-26 12:47:00,82.8,52.3,30.03,NNW,328,9.2,9.2,35,0.00,FEW,,0.00,1011.0,WeatherDisplay:10.37,2013-06-26 10:47:00,
2013-06-26 12:49:00,82.4,52.0,30.03,North,5,9.2,9.2,35,0.00,FEW,,0.00,1002.0,WeatherDisplay:10.37,2013-06-26 10:49:00,
2013-06-26 12:50:00,82.4,52.0,30.03,NNW,329,9.2,9.2,35,0.00,FEW,,0.00,1002.0,WeatherDisplay:10.37,2013-06-26 10:50:00,
2013-06-26 12:52:00,81.9,52.3,30.03,NE,49,7.0,7.0,36,0.00,FEW,,0.00,1013.0,WeatherDisplay:10.37,2013-06-26 10:52:00,
2013-06-26 12:54:00,81.7,52.1,30.03,NNE,31,8.1,8.1,36,0.00,FEW,,0.00,1013.0,WeatherDisplay:10.37,2013-06-26 10:54:00,
2013-06-26 12:55:00,81.7,51.4,30.03,NE,36,8.1,8.1,35,0.00,FEW,,0.00,1013.0,WeatherDisplay:10.37,2013-06-26 10:55:00,
2013-06-26 12:57:00,81.4,51.1,30.03,NE,51,3.5,0.0,35,0.00,FEW,,0.00,216.0,WeatherDisplay:10.37,2013-06-26 10:57:00,
2013-06-26 12:59:00,81.3,51.0,30.02,NE,49,0.0,0.0,35,0.00,FEW,,0.00,193.0,WeatherDisplay:10.37,2013-06-26 10:59:00,
2013-06-26 13:00:00,81.3,51.0,30.02,NE,51,0.0,0.0,35,0.00,FEW,,0.00,193.0,WeatherDisplay:10.37,2013-06-26 11:00:00,
2013-06-26 13:02:00,81.3,51.0,30.03,NNE,15,0.0,0.0,35,0.00,FEW,,0.00,190.0,WeatherDisplay:10.37,2013-06-26 11:02:00,
2013-06-26 13:05:00,81.3,51.0,30.03,WNW,298,3.5,3.5,35,0.00,SCT,,0.00,192.0,WeatherDisplay:10.37,2013-06-26 11:05:00,
2013-06-26 13:06:00,81.2,50.9,30.03,NNW,331,5.0,5.0,35,0.00,SCT,,0.00,195.0,WeatherDisplay:10.37,2013-06-26 11:06:00,
2013-06-26 13:07:00,81.1,50.1,30.03,West,279,6.9,6.9,34,0.00,SCT,,0.00,199.0,WeatherDisplay:10.37,2013-06-26 11:07:00,
2013-06-26 13:10:00,80.8,49.0,30.03,WNW,295,6.9,6.9,33,0.00,SCT,,0.00,197.0,WeatherDisplay:10.37,2013-06-26 11:10:00,
2013-06-26 13:11:00,80.6,48.8,30.03,WSW,255,4.6,4.6,33,0.00,SCT,,0.00,206.0,WeatherDisplay:10.37,2013-06-26 11:11:00,
2013-06-26 13:12:00,80.5,48.7,30.03,West,267,3.5,3.5,33,0.00,SCT,,0.00,207.0,WeatherDisplay:10.37,2013-06-26 11:12:00,
2013-06-26 13:13:00,80.4,48.7,30.03,West,267,3.5,3.5,33,0.00,SCT,,0.00,207.0,WeatherDisplay:10.37,2013-06-26 11:13:00,
2013-06-26 13:15:00,80.3,50.1,30.02,West,267,5.8,5.8,35,0.00,SCT,,0.00,239.0,WeatherDisplay:10.37,2013-06-26 11:15:00,
2013-06-26 13:16:00,80.2,50.1,30.02,West,261,5.8,5.8,35,0.00,SCT,,0.00,239.0,WeatherDisplay:10.37,2013-06-26 11:16:00,
2013-06-26 13:17:00,80.1,50.0,30.02,West,277,5.8,5.8,35,0.00,SCT,,0.00,1011.0,WeatherDisplay:10.37,2013-06-26 11:17:00,
2013-06-26 13:18:00,80.1,50.0,30.02,WNW,299,5.8,5.8,35,0.00,SCT,,0.00,1011.0,WeatherDisplay:10.37,2013-06-26 11:18:00,
2013-06-26 13:20:00,80.1,50.7,30.02,West,262,8.1,8.1,36,0.00,FEW,,0.00,250.0,WeatherDisplay:10.37,2013-06-26 11:20:00,
2013-06-26 13:21:00,80.1,50.7,30.02,West,261,8.1,8.1,36,0.00,FEW,,0.00,250.0,WeatherDisplay:10.37,2013-06-26 11:21:00,
2013-06-26 13:23:00,80.0,49.9,30.02,WSW,255,6.9,6.9,35,0.00,FEW,,0.00,220.0,WeatherDisplay:10.37,2013-06-26 11:23:00,
2013-06-26 13:26:00,80.0,50.6,30.02,SSW,211,6.9,6.9,36,0.00,FEW,,0.00,213.0,WeatherDisplay:10.37,2013-06-26 11:26:00,
2013-06-26 13:28:00,80.0,49.9,30.02,SW,232,5.0,5.0,35,0.00,FEW,,0.00,220.0,WeatherDisplay:10.37,2013-06-26 11:28:00,
2013-06-26 13:29:00,80.0,49.9,30.02,WSW,250,4.6,4.6,35,0.00,SCT,,0.00,214.0,WeatherDisplay:10.37,2013-06-26 11:29:00,
2013-06-26 13:31:00,80.0,50.6,30.02,SW,236,4.6,4.6,36,0.00,SCT,,0.00,214.0,WeatherDisplay:10.37,2013-06-26 11:31:00,
2013-06-26 13:33:00,80.1,50.7,30.02,WNW,295,5.8,5.8,36,0.00,SCT,,0.00,225.0,WeatherDisplay:10.37,2013-06-26 11:33:00,
2013-06-26 13:34:00,80.1,50.7,30.02,WNW,296,5.8,5.8,36,0.00,SCT,,0.00,962.0,WeatherDisplay:10.37,2013-06-26 11:34:00,
2013-06-26 13:36:00,80.1,51.5,30.02,WSW,242,5.0,5.0,37,0.00,FEW,,0.00,229.0,WeatherDisplay:10.37,2013-06-26 11:36:00,
2013-06-26 13:39:00,80.2,50.1,30.02,SSW,194,4.6,4.6,35,0.00,FEW,,0.00,251.0,WeatherDisplay:10.37,2013-06-26 11:39:00,
2013-06-26 13:41:00,80.4,50.2,30.02,WSW,253,6.9,6.9,35,0.00,FEW,,0.00,976.0,WeatherDisplay:10.37,2013-06-26 11:41:00,
2013-06-26 13:44:00,80.9,50.7,30.02,WSW,246,8.1,8.1,35,0.00,FEW,,0.00,990.0,WeatherDisplay:10.37,2013-06-26 11:44:00,
2013-06-26 13:46:00,81.0,50.8,30.01,SSW,198,1.0,0.0,35,0.00,FEW,,0.00,962.0,WeatherDisplay:10.37,2013-06-26 11:46:00,
2013-06-26 13:47:00,81.0,50.8,30.01,WSW,255,4.0,4.0,35,0.00,FEW,,0.00,962.0,WeatherDisplay:10.37,2013-06-26 11:47:00,
2013-06-26 13:49:00,81.2,50.9,30.01,WSW,237,4.6,4.6,35,0.00,FEW,,0.00,232.0,WeatherDisplay:10.37,2013-06-26 11:49:00,
2013-06-26 13:50:00,81.2,50.9,30.01,SW,221,3.5,3.5,35,0.00,FEW,,0.00,232.0,WeatherDisplay:10.37,2013-06-26 11:50:00,
2013-06-26 13:51:00,81.4,51.1,30.01,SW,225,6.9,6.9,35,0.00,FEW,,0.00,232.0,WeatherDisplay:10.37,2013-06-26 11:51:00,
2013-06-26 13:52:00,81.4,51.1,30.01,WSW,244,6.9,6.9,35,0.00,FEW,,0.00,997.0,WeatherDisplay:10.37,2013-06-26 11:52:00,
2013-06-26 13:54:00,81.7,51.4,30.01,SW,234,5.8,5.8,35,0.00,FEW,,0.00,954.0,WeatherDisplay:10.37,2013-06-26 11:54:00,
2013-06-26 13:55:00,81.7,50.6,30.01,WSW,248,4.6,4.6,34,0.00,FEW,,0.00,969.0,WeatherDisplay:10.37,2013-06-26 11:55:00,
2013-06-26 13:56:00,82.0,51.6,30.01,West,279,5.8,5.8,35,0.00,FEW,,0.00,967.0,WeatherDisplay:10.37,2013-06-26 11:56:00,
2013-06-26 13:57:00,82.0,50.9,30.01,NW,317,5.8,5.8,34,0.00,FEW,,0.00,967.0,WeatherDisplay:10.37,2013-06-26 11:57:00,
2013-06-26 13:59:00,82.0,50.9,30.01,ENE,57,5.8,5.8,34,0.00,FEW,,0.00,967.0,WeatherDisplay:10.37,2013-06-26 11:59:00,
2013-06-26 14:01:00,81.9,50.8,30.01,NNE,15,4.6,4.6,34,0.00,FEW,,0.00,188.0,WeatherDisplay:10.37,2013-06-26 12:01:00,
2013-06-26 14:02:00,81.9,50.8,30.01,NNE,15,4.6,4.6,34,0.00,FEW,,0.00,195.0,WeatherDisplay:10.37,2013-06-26 12:02:00,
2013-06-26 14:04:00,81.8,50.7,30.01,North,355,5.0,5.0,34,0.00,FEW,,0.00,197.0,WeatherDisplay:10.37,2013-06-26 12:04:00,
2013-06-26 14:07:00,81.7,50.6,30.01,NNW,336,2.3,2.3,34,0.00,FEW,,0.00,186.0,WeatherDisplay:10.37,2013-06-26 12:07:00,
2013-06-26 14:09:00,81.5,51.2,30.01,NW,325,7.0,7.0,35,0.00,SCT,,0.00,193.0,WeatherDisplay:10.37,2013-06-26 12:09:00,
2013-06-26 14:10:00,81.4,51.1,30.01,NW,304,7.0,7.0,35,0.00,SCT,,0.00,220.0,WeatherDisplay:10.37,2013-06-26 12:10:00,
2013-06-26 14:12:00,81.2,50.9,30.01,NW,309,5.0,5.0,35,0.00,SCT,,0.00,937.0,WeatherDisplay:10.37,2013-06-26 12:12:00,
2013-06-26 14:13:00,81.0,51.5,30.01,NW,309,4.6,4.6,36,0.00,SCT,,0.00,933.0,WeatherDisplay:10.37,2013-06-26 12:13:00,
2013-06-26 14:15:00,81.0,51.5,30.01,West,263,4.6,4.6,36,0.00,FEW,,0.00,935.0,WeatherDisplay:10.37,2013-06-26 12:15:00,
2013-06-26 14:17:00,81.1,51.6,30.01,WNW,300,6.0,6.0,36,0.00,FEW,,0.00,921.0,WeatherDisplay:10.37,2013-06-26 12:17:00,
2013-06-26 14:18:00,81.2,51.7,30.01,NW,321,6.9,6.9,36,0.00,FEW,,0.00,911.0,WeatherDisplay:10.37,2013-06-26 12:18:00,
2013-06-26 14:20:00,81.3,52.5,30.00,WNW,290,10.4,10.4,37,0.00,FEW,,0.00,900.0,WeatherDisplay:10.37,2013-06-26 12:20:00,
2013-06-26 14:22:00,81.4,51.9,30.00,West,261,5.8,5.8,36,0.00,FEW,,0.00,900.0,WeatherDisplay:10.37,2013-06-26 12:22:00,
2013-06-26 14:23:00,81.5,52.0,30.00,WSW,254,3.5,3.5,36,0.00,FEW,,0.00,905.0,WeatherDisplay:10.37,2013-06-26 12:23:00,
2013-06-26 14:25:00,81.7,52.1,30.00,WSW,253,4.6,4.6,36,0.00,FEW,,0.00,921.0,WeatherDisplay:10.37,2013-06-26 12:25:00,
2013-06-26 14:27:00,81.9,51.6,30.00,West,265,3.5,3.5,35,0.00,FEW,,0.00,935.0,WeatherDisplay:10.37,2013-06-26 12:27:00,
2013-06-26 14:28:00,81.9,51.6,30.00,NW,317,3.5,3.5,35,0.00,FEW,,0.00,935.0,WeatherDisplay:10.37,2013-06-26 12:28:00,
2013-06-26 14:30:00,82.5,52.9,30.00,WSW,256,3.5,3.5,36,0.00,FEW,,0.00,969.0,WeatherDisplay:10.37,2013-06-26 12:30:00,
2013-06-26 14:32:00,83.3,52.0,30.00,SE,132,3.5,3.5,34,0.00,FEW,,0.00,944.0,WeatherDisplay:10.37,2013-06-26 12:32:00,
2013-06-26 14:33:00,83.4,52.1,30.00,SE,126,3.5,3.5,34,0.00,FEW,,0.00,932.0,WeatherDisplay:10.37,2013-06-26 12:33:00,
2013-06-26 14:35:00,83.8,52.4,30.00,SSW,213,3.5,3.5,34,0.00,FEW,,0.00,879.0,WeatherDisplay:10.37,2013-06-26 12:35:00,
2013-06-26 14:36:00,83.9,52.5,30.00,South,169,3.5,3.5,34,0.00,FEW,,0.00,879.0,WeatherDisplay:10.37,2013-06-26 12:36:00,
2013-06-26 14:38:00,84.0,52.6,30.00,South,170,0.0,0.0,34,0.00,FEW,,0.00,142.0,WeatherDisplay:10.37,2013-06-26 12:38:00,
2013-06-26 14:40:00,84.0,51.8,30.00,ESE,115,3.5,0.0,33,0.00,FEW,,0.00,130.0,WeatherDisplay:10.37,2013-06-26 12:40:00,
2013-06-26 14:41:00,84.0,51.8,30.00,ESE,122,1.1,1.1,33,0.00,FEW,,0.00,130.0,WeatherDisplay:10.37,2013-06-26 12:41:00,
2013-06-26 14:43:00,83.9,52.5,30.00,SE,136,5.0,5.0,34,0.00,FEW,,0.00,135.0,WeatherDisplay:10.37,2013-06-26 12:43:00,
2013-06-26 14:45:00,83.7,53.1,30.00,SE,128,6.9,6.9,35,0.00,FEW,,0.00,165.0,WeatherDisplay:10.37,2013-06-26 12:45:00,
2013-06-26 14:46:00,83.7,53.1,30.00,ESE,120,7.0,7.0,35,0.00,FEW,,0.00,165.0,WeatherDisplay:10.37,2013-06-26 12:46:00,
2013-06-26 14:48:00,83.3,52.8,30.00,SSE,156,4.0,4.0,35,0.00,SCT,,0.00,875.0,WeatherDisplay:10.37,2013-06-26 12:48:00,
2013-06-26 14:51:00,83.2,52.7,30.00,SE,144,4.6,4.6,35,0.00,FEW,,0.00,158.0,WeatherDisplay:10.37,2013-06-26 12:51:00,
2013-06-26 14:53:00,83.1,52.6,30.00,SSE,152,3.5,3.5,35,0.00,FEW,,0.00,167.0,WeatherDisplay:10.37,2013-06-26 12:53:00,
2013-06-26 14:56:00,83.1,54.9,29.99,SE,139,0.0,0.0,38,0.00,FEW,,0.00,186.0,WeatherDisplay:10.37,2013-06-26 12:56:00,
2013-06-26 14:58:00,83.1,54.9,30.00,NW,320,1.0,0.0,38,0.00,FEW,,0.00,186.0,WeatherDisplay:10.37,2013-06-26 12:58:00,
2013-06-26 14:59:00,83.1,55.6,29.99,WNW,293,2.3,2.3,39,0.00,FEW,,0.00,186.0,WeatherDisplay:10.37,2013-06-26 12:59:00,
2013-06-26 15:01:00,82.9,55.4,30.00,SSE,153,3.0,3.0,39,0.00,SCT,,0.00,186.0,WeatherDisplay:10.37,2013-06-26 13:01:00,
2013-06-26 15:03:00,83.1,56.3,30.00,WSW,252,4.0,5.5,40,0.00,SCT,,0.00,236.0,WeatherDisplay:10.37,2013-06-26 13:03:00,
2013-06-26 15:04:00,83.0,56.9,30.00,West,274,9.2,9.2,41,0.00,SCT,,0.00,236.0,WeatherDisplay:10.37,2013-06-26 13:04:00,
2013-06-26 15:06:00,82.5,58.4,30.00,SW,236,14.0,14.0,44,0.00,SCT,,0.00,236.0,WeatherDisplay:10.37,2013-06-26 13:06:00,
2013-06-26 15:07:00,82.4,58.3,30.00,WSW,255,15.0,15.0,44,0.00,SCT,,0.00,236.0,WeatherDisplay:10.37,2013-06-26 13:07:00,
2013-06-26 15:08:00,82.1,58.0,30.00,WSW,244,20.7,20.7,44,0.00,SCT,,0.00,236.0,WeatherDisplay:10.37,2013-06-26 13:08:00,
2013-06-26 15:09:00,81.8,58.4,30.00,WSW,250,17.3,17.3,45,0.00,SCT,,0.00,236.0,WeatherDisplay:10.37,2013-06-26 13:09:00,
2013-06-26 15:11:00,81.2,58.5,30.00,West,260,15.0,15.0,46,0.00,SCT,,0.00,236.0,WeatherDisplay:10.37,2013-06-26 13:11:00,
2013-06-26 15:12:00,81.0,58.3,30.00,SW,234,15.0,15.0,46,0.00,SCT,,0.00,236.0,WeatherDisplay:10.37,2013-06-26 13:12:00,
2013-06-26 15:13:00,81.0,59.5,30.00,SW,227,12.7,12.7,48,0.00,FEW,,0.00,837.0,WeatherDisplay:10.37,2013-06-26 13:13:00,
2013-06-26 15:14:00,81.1,59.6,30.00,West,269,12.7,12.7,48,0.00,FEW,,0.00,838.0,WeatherDisplay:10.37,2013-06-26 13:14:00,
2013-06-26 15:17:00,81.1,59.0,30.00,WSW,254,15.0,15.0,47,0.00,FEW,,0.00,809.0,WeatherDisplay:10.37,2013-06-26 13:17:00,
2013-06-26 15:19:00,81.0,59.5,30.00,WSW,254,15.0,15.0,48,0.00,FEW,,0.00,798.0,WeatherDisplay:10.37,2013-06-26 13:19:00,
2013-06-26 15:22:00,80.7,59.2,30.00,WSW,254,18.4,18.4,48,0.00,FEW,,0.00,763.0,WeatherDisplay:10.37,2013-06-26 13:22:00,
2013-06-26 15:24:00,80.4,59.5,30.00,WSW,248,17.3,17.3,49,0.00,FEW,,0.00,766.0,WeatherDisplay:10.37,2013-06-26 13:24:00,
2013-06-26 15:27:00,80.5,59.6,30.00,SW,219,18.4,18.4,49,0.00,FEW,,0.00,756.0,WeatherDisplay:10.37,2013-06-26 13:27:00,
2013-06-26 15:28:00,80.5,59.6,30.00,WSW,250,18.4,18.4,49,0.00,FEW,,0.00,756.0,WeatherDisplay:10.37,2013-06-26 13:28:00,
2013-06-26 15:29:00,80.5,59.6,30.00,West,261,14.0,14.0,49,0.00,FEW,,0.00,752.0,WeatherDisplay:10.37,2013-06-26 13:29:00,
2013-06-26 15:32:00,80.2,59.3,30.00,SW,236,19.6,19.6,49,0.00,FEW,,0.00,747.0,WeatherDisplay:10.37,2013-06-26 13:32:00,
2013-06-26 15:33:00,80.2,59.3,30.00,SW,236,19.6,19.6,49,0.00,FEW,,0.00,747.0,WeatherDisplay:10.37,2013-06-26 13:33:00,
2013-06-26 15:34:00,80.0,59.1,30.00,WSW,252,19.6,19.6,49,0.00,FEW,,0.00,747.0,WeatherDisplay:10.37,2013-06-26 13:34:00,
2013-06-26 15:35:00,79.9,59.0,30.00,WSW,247,16.1,16.1,49,0.00,FEW,,0.00,745.0,WeatherDisplay:10.37,2013-06-26 13:35:00,
2013-06-26 15:37:00,79.6,59.3,30.00,WSW,244,15.0,15.0,50,0.00,FEW,,0.00,747.0,WeatherDisplay:10.37,2013-06-26 13:37:00,
2013-06-26 15:38:00,79.6,59.3,30.00,WSW,253,15.0,15.0,50,0.00,FEW,,0.00,747.0,WeatherDisplay:10.37,2013-06-26 13:38:00,
2013-06-26 15:39:00,79.6,59.3,30.00,West,265,18.4,18.4,50,0.00,FEW,,0.00,742.0,WeatherDisplay:10.37,2013-06-26 13:39:00,
2013-06-26 15:40:00,79.6,59.3,30.00,WSW,255,18.4,18.4,50,0.00,FEW,,0.00,731.0,WeatherDisplay:10.37,2013-06-26 13:40:00,
2013-06-26 15:43:00,79.6,59.3,30.00,SW,236,19.0,19.0,50,0.00,FEW,,0.00,726.0,WeatherDisplay:10.37,2013-06-26 13:43:00,
2013-06-26 15:44:00,79.7,60.0,30.00,SW,231,19.6,19.6,51,0.00,FEW,,0.00,722.0,WeatherDisplay:10.37,2013-06-26 13:44:00,
2013-06-26 15:45:00,79.9,59.6,30.01,WSW,250,15.0,15.0,50,0.00,FEW,,0.00,715.0,WeatherDisplay:10.37,2013-06-26 13:45:00,
2013-06-26 15:48:00,79.9,59.6,30.00,WSW,257,12.7,12.7,50,0.00,FEW,,0.00,696.0,WeatherDisplay:10.37,2013-06-26 13:48:00,
2013-06-26 15:49:00,79.9,59.6,30.00,WSW,258,11.5,11.5,50,0.00,FEW,,0.00,696.0,WeatherDisplay:10.37,2013-06-26 13:49:00,
2013-06-26 15:50:00,80.1,60.3,30.00,West,261,18.0,18.0,51,0.00,FEW,,0.00,698.0,WeatherDisplay:10.37,2013-06-26 13:50:00,
2013-06-26 15:53:00,80.0,59.1,30.00,West,271,16.1,16.1,49,0.00,FEW,,0.00,703.0,WeatherDisplay:10.37,2013-06-26 13:53:00,
2013-06-26 15:54:00,80.0,59.1,30.00,SW,228,18.4,18.4,49,0.00,FEW,,0.00,701.0,WeatherDisplay:10.37,2013-06-26 13:54:00,
2013-06-26 15:55:00,80.0,59.7,30.00,West,280,15.0,15.0,50,0.00,FEW,,0.00,694.0,WeatherDisplay:10.37,2013-06-26 13:55:00,
2013-06-26 15:58:00,79.9,59.0,30.00,WSW,252,18.4,18.4,49,0.00,FEW,,0.00,682.0,WeatherDisplay:10.37,2013-06-26 13:58:00,
2013-06-26 15:59:00,79.7,58.8,30.00,West,275,18.4,18.4,49,0.00,FEW,,0.00,687.0,WeatherDisplay:10.37,2013-06-26 13:59:00,
2013-06-26 16:00:00,79.6,58.8,30.00,West,267,11.5,11.5,49,0.00,FEW,,0.00,689.0,WeatherDisplay:10.37,2013-06-26 14:00:00,
2013-06-26 16:03:00,79.6,58.8,30.00,SW,218,18.4,18.4,49,0.00,FEW,,0.00,689.0,WeatherDisplay:10.37,2013-06-26 14:03:00,
2013-06-26 16:04:00,79.7,58.8,30.00,South,185,13.8,13.8,49,0.00,FEW,,0.00,684.0,WeatherDisplay:10.37,2013-06-26 14:04:00,
2013-06-26 16:05:00,79.7,58.8,30.00,SW,220,13.8,13.8,49,0.00,FEW,,0.00,677.0,WeatherDisplay:10.37,2013-06-26 14:05:00,
2013-06-26 16:06:00,79.8,58.9,30.00,SW,236,11.0,11.0,49,0.00,FEW,,0.00,670.0,WeatherDisplay:10.37,2013-06-26 14:06:00,
2013-06-26 16:08:00,79.9,59.0,30.01,WSW,254,11.5,11.5,49,0.00,FEW,,0.00,663.0,WeatherDisplay:10.37,2013-06-26 14:08:00,
2013-06-26 16:09:00,79.9,59.6,30.01,West,262,16.1,16.1,50,0.00,FEW,,0.00,652.0,WeatherDisplay:10.37,2013-06-26 14:09:00,
2013-06-26 16:10:00,79.9,59.6,30.01,WSW,257,16.1,16.1,50,0.00,FEW,,0.00,652.0,WeatherDisplay:10.37,2013-06-26 14:10:00,
2013-06-26 16:11:00,79.7,58.8,30.00,West,260,17.3,17.3,49,0.00,FEW,,0.00,647.0,WeatherDisplay:10.37,2013-06-26 14:11:00,
2013-06-26 16:13:00,79.5,59.2,30.00,WSW,240,17.3,17.3,50,0.00,FEW,,0.00,640.0,WeatherDisplay:10.37,2013-06-26 14:13:00,
2013-06-26 16:14:00,79.5,59.2,30.01,West,275,14.0,14.0,50,0.00,FEW,,0.00,636.0,WeatherDisplay:10.37,2013-06-26 14:14:00,
2013-06-26 16:15:00,79.5,59.2,30.01,SW,229,19.0,19.0,50,0.00,FEW,,0.00,636.0,WeatherDisplay:10.37,2013-06-26 14:15:00,
2013-06-26 16:16:00,79.5,59.2,30.01,West,277,19.6,19.6,50,0.00,FEW,,0.00,635.0,WeatherDisplay:10.37,2013-06-26 14:16:00,
2013-06-26 16:18:00,79.3,59.0,30.01,West,262,15.0,15.0,50,0.00,FEW,,0.00,626.0,WeatherDisplay:10.37,2013-06-26 14:18:00,
2013-06-26 16:20:00,79.2,59.0,30.01,West,265,15.0,15.0,50,0.00,FEW,,0.00,624.0,WeatherDisplay:10.37,2013-06-26 14:20:00,
2013-06-26 16:22:00,79.0,58.8,30.00,West,260,13.8,13.8,50,0.00,FEW,,0.00,621.0,WeatherDisplay:10.37,2013-06-26 14:22:00,
2013-06-26 16:24:00,78.8,58.6,30.00,SW,232,16.1,16.1,50,0.00,FEW,,0.00,621.0,WeatherDisplay:10.37,2013-06-26 14:24:00,
2013-06-26 16:25:00,78.6,58.4,30.00,WSW,254,19.6,19.6,50,0.00,FEW,,0.00,621.0,WeatherDisplay:10.37,2013-06-26 14:25:00,
2013-06-26 16:28:00,78.8,58.6,30.00,West,279,12.7,12.7,50,0.00,FEW,,0.00,608.0,WeatherDisplay:10.37,2013-06-26 14:28:00,
2013-06-26 16:29:00,78.9,58.7,30.00,WNW,296,13.0,13.0,50,0.00,FEW,,0.00,605.0,WeatherDisplay:10.37,2013-06-26 14:29:00,
2013-06-26 16:30:00,79.0,58.8,30.00,WNW,292,12.7,12.7,50,0.00,FEW,,0.00,601.0,WeatherDisplay:10.37,2013-06-26 14:30:00,
2013-06-26 16:31:00,79.1,58.3,30.00,WNW,288,15.0,15.0,49,0.00,FEW,,0.00,596.0,WeatherDisplay:10.37,2013-06-26 14:31:00,
2013-06-26 16:33:00,79.1,58.3,30.00,WNW,297,19.6,19.6,49,0.00,FEW,,0.00,582.0,WeatherDisplay:10.37,2013-06-26 14:33:00,
2013-06-26 16:34:00,79.0,58.2,30.00,West,268,16.1,16.1,49,0.00,FEW,,0.00,582.0,WeatherDisplay:10.37,2013-06-26 14:34:00,
2013-06-26 16:35:00,78.9,57.5,30.00,WNW,296,19.6,19.6,48,0.00,FEW,,0.00,577.0,WeatherDisplay:10.37,2013-06-26 14:35:00,
2013-06-26 16:36:00,78.9,57.5,30.00,WSW,250,19.6,19.6,48,0.00,FEW,,0.00,578.0,WeatherDisplay:10.37,2013-06-26 14:36:00,
2013-06-26 16:38:00,78.9,58.1,30.00,WSW,255,15.0,15.0,49,0.00,FEW,,0.00,570.0,WeatherDisplay:10.37,2013-06-26 14:38:00,
2013-06-26 16:39:00,78.9,58.1,30.00,SW,230,16.1,16.1,49,0.00,FEW,,0.00,570.0,WeatherDisplay:10.37,2013-06-26 14:39:00,
2013-06-26 16:40:00,79.0,58.2,30.00,WSW,239,16.1,16.1,49,0.00,FEW,,0.00,564.0,WeatherDisplay:10.37,2013-06-26 14:40:00,
2013-06-26 16:41:00,79.0,58.2,30.00,WSW,246,16.1,16.1,49,0.00,FEW,,0.00,563.0,WeatherDisplay:10.37,2013-06-26 14:41:00,
2013-06-26 16:43:00,78.6,57.3,30.00,West,267,20.7,20.7,48,0.00,FEW,,0.00,555.0,WeatherDisplay:10.37,2013-06-26 14:43:00,
2013-06-26 16:44:00,78.6,57.3,30.00,WNW,288,20.7,20.7,48,0.00,FEW,,0.00,555.0,WeatherDisplay:10.37,2013-06-26 14:44:00,
2013-06-26 16:46:00,78.4,57.1,30.00,WSW,250,19.6,19.6,48,0.00,FEW,,0.00,554.0,WeatherDisplay:10.37,2013-06-26 14:46:00,
2013-06-26 16:48:00,78.3,57.6,29.99,West,271,18.0,18.0,49,0.00,FEW,,0.00,545.0,WeatherDisplay:10.37,2013-06-26 14:48:00,
2013-06-26 16:49:00,78.3,57.6,29.99,West,277,13.8,13.8,49,0.00,FEW,,0.00,540.0,WeatherDisplay:10.37,2013-06-26 14:49:00,
2013-06-26 16:51:00,78.2,57.5,30.00,SW,236,19.6,19.6,49,0.00,FEW,,0.00,536.0,WeatherDisplay:10.37,2013-06-26 14:51:00,
2013-06-26 16:53:00,78.0,57.3,30.00,WSW,248,20.7,20.7,49,0.00,FEW,,0.00,527.0,WeatherDisplay:10.37,2013-06-26 14:53:00,
2013-06-26 16:54:00,77.9,57.8,30.00,West,260,17.3,17.3,50,0.00,FEW,,0.00,524.0,WeatherDisplay:10.37,2013-06-26 14:54:00,
2013-06-26 16:56:00,77.8,57.7,29.99,SW,229,16.1,16.1,50,0.00,FEW,,0.00,522.0,WeatherDisplay:10.37,2013-06-26 14:56:00,
2013-06-26 16:58:00,78.0,57.9,30.00,WSW,244,15.0,15.0,50,0.00,FEW,,0.00,513.0,WeatherDisplay:10.37,2013-06-26 14:58:00,
2013-06-26 17:00:00,78.0,57.9,30.00,SW,229,17.3,17.3,50,0.00,FEW,,0.00,512.0,WeatherDisplay:10.37,2013-06-26 15:00:00,
2013-06-26 17:01:00,78.0,57.9,30.00,SW,235,19.6,19.6,50,0.00,FEW,,0.00,508.0,WeatherDisplay:10.37,2013-06-26 15:01:00,
2013-06-26 17:04:00,77.7,58.1,30.00,WSW,257,17.3,17.3,51,0.00,FEW,,0.00,497.0,WeatherDisplay:10.37,2013-06-26 15:04:00,
2013-06-26 17:05:00,77.5,57.9,30.00,WSW,238,17.3,17.3,51,0.00,FEW,,0.00,490.0,WeatherDisplay:10.37,2013-06-26 15:05:00,
2013-06-26 17:06:00,77.5,57.9,30.00,SSW,207,18.0,18.0,51,0.00,FEW,,0.00,490.0,WeatherDisplay:10.37,2013-06-26 15:06:00,
2013-06-26 17:07:00,77.5,57.9,30.00,West,265,18.4,18.4,51,0.00,FEW,,0.00,489.0,WeatherDisplay:10.37,2013-06-26 15:07:00,
2013-06-26 17:09:00,77.5,57.9,30.00,WSW,254,23.0,23.0,51,0.00,FEW,,0.00,483.0,WeatherDisplay:10.37,2013-06-26 15:09:00,
2013-06-26 17:10:00,77.6,58.0,30.00,West,266,17.3,17.3,51,0.00,FEW,,0.00,478.0,WeatherDisplay:10.37,2013-06-26 15:10:00,
2013-06-26 17:11:00,77.5,57.9,30.00,WSW,248,17.3,17.3,51,0.00,FEW,,0.00,476.0,WeatherDisplay:10.37,2013-06-26 15:11:00,
2013-06-26 17:12:00,77.5,57.9,30.00,WNW,294,17.3,17.3,51,0.00,FEW,,0.00,476.0,WeatherDisplay:10.37,2013-06-26 15:12:00,
2013-06-26 17:14:00,77.4,58.9,30.00,WSW,257,17.3,17.3,53,0.00,FEW,,0.00,469.0,WeatherDisplay:10.37,2013-06-26 15:14:00,
2013-06-26 17:15:00,77.4,58.9,30.00,West,274,19.6,19.6,53,0.00,FEW,,0.00,468.0,WeatherDisplay:10.37,2013-06-26 15:15:00,
2013-06-26 17:16:00,77.4,59.5,30.00,West,262,15.0,15.0,54,0.00,FEW,,0.00,468.0,WeatherDisplay:10.37,2013-06-26 15:16:00,
2013-06-26 17:17:00,77.4,59.5,30.00,West,259,15.0,15.0,54,0.00,FEW,,0.00,468.0,WeatherDisplay:10.37,2013-06-26 15:17:00,
2013-06-26 17:19:00,77.2,59.3,30.00,West,267,17.3,17.3,54,0.00,FEW,,0.00,452.0,WeatherDisplay:10.37,2013-06-26 15:19:00,
2013-06-26 17:21:00,77.2,59.3,30.00,WSW,252,15.0,15.0,54,0.00,FEW,,0.00,445.0,WeatherDisplay:10.37,2013-06-26 15:21:00,
2013-06-26 17:22:00,77.2,59.3,30.00,West,273,16.0,16.0,54,0.00,FEW,,0.00,445.0,WeatherDisplay:10.37,2013-06-26 15:22:00,
2013-06-26 17:24:00,77.1,59.2,30.01,West,275,16.1,16.1,54,0.00,FEW,,0.00,436.0,WeatherDisplay:10.37,2013-06-26 15:24:00,
2013-06-26 17:26:00,77.0,59.1,30.00,WNW,284,10.4,10.4,54,0.00,FEW,,0.00,434.0,WeatherDisplay:10.37,2013-06-26 15:26:00,
2013-06-26 17:27:00,77.1,59.7,30.00,West,269,10.4,10.4,55,0.00,FEW,,0.00,431.0,WeatherDisplay:10.37,2013-06-26 15:27:00,
2013-06-26 17:29:00,77.0,59.1,30.00,WSW,255,20.7,20.7,54,0.00,FEW,,0.00,425.0,WeatherDisplay:10.37,2013-06-26 15:29:00,
2013-06-26 17:32:00,76.9,59.5,30.00,West,275,16.1,16.1,55,0.00,FEW,,0.00,422.0,WeatherDisplay:10.37,2013-06-26 15:32:00,
2013-06-26 17:34:00,76.9,59.0,30.00,West,260,16.0,16.0,54,0.00,FEW,,0.00,415.0,WeatherDisplay:10.37,2013-06-26 15:34:00,
2013-06-26 17:37:00,76.8,59.4,30.00,West,269,16.1,16.1,55,0.00,FEW,,0.00,406.0,WeatherDisplay:10.37,2013-06-26 15:37:00,
2013-06-26 17:40:00,77.0,59.1,30.00,West,281,13.8,13.8,54,0.00,FEW,,0.00,401.0,WeatherDisplay:10.37,2013-06-26 15:40:00,
2013-06-26 17:42:00,76.9,59.0,30.00,West,271,15.0,15.0,54,0.00,FEW,,0.00,394.0,WeatherDisplay:10.37,2013-06-26 15:42:00,
2013-06-26 17:43:00,76.9,58.5,30.01,West,277,15.0,15.0,53,0.00,FEW,,0.00,394.0,WeatherDisplay:10.37,2013-06-26 15:43:00,
2013-06-26 17:45:00,76.7,58.3,30.00,WSW,246,17.3,17.3,53,0.00,FEW,,0.00,380.0,WeatherDisplay:10.37,2013-06-26 15:45:00,
2013-06-26 17:47:00,76.7,58.3,30.01,West,275,14.0,14.0,53,0.00,FEW,,0.00,381.0,WeatherDisplay:10.37,2013-06-26 15:47:00,
2013-06-26 17:48:00,76.7,58.3,30.01,West,259,13.8,13.8,53,0.00,FEW,,0.00,378.0,WeatherDisplay:10.37,2013-06-26 15:48:00,
2013-06-26 17:50:00,76.7,58.8,30.00,West,278,11.5,11.5,54,0.00,FEW,,0.00,362.0,WeatherDisplay:10.37,2013-06-26 15:50:00,
2013-06-26 17:52:00,76.8,59.9,30.01,WNW,285,12.0,12.0,56,0.00,FEW,,0.00,355.0,WeatherDisplay:10.37,2013-06-26 15:52:00,
2013-06-26 17:53:00,76.8,59.9,30.01,WNW,300,11.5,11.5,56,0.00,FEW,,0.00,355.0,WeatherDisplay:10.37,2013-06-26 15:53:00,
2013-06-26 17:55:00,76.8,59.9,30.00,West,279,12.7,12.7,56,0.00,FEW,,0.00,350.0,WeatherDisplay:10.37,2013-06-26 15:55:00,
2013-06-26 17:58:00,76.8,59.9,30.00,SW,219,12.0,12.0,56,0.00,FEW,,0.00,357.0,WeatherDisplay:10.37,2013-06-26 15:58:00,
2013-06-26 18:01:00,76.7,59.8,30.01,West,271,11.5,11.5,56,0.00,FEW,,0.00,366.0,WeatherDisplay:10.37,2013-06-26 16:01:00,
2013-06-26 18:03:00,76.6,59.2,30.00,WSW,250,11.5,11.5,55,0.00,FEW,,0.00,369.0,WeatherDisplay:10.37,2013-06-26 16:03:00,
2013-06-26 18:04:00,76.6,59.7,30.01,WSW,248,10.4,10.4,56,0.00,FEW,,0.00,352.0,WeatherDisplay:10.37,2013-06-26 16:04:00,
2013-06-26 18:06:00,76.5,59.6,30.01,WSW,252,10.0,10.0,56,0.00,FEW,,0.00,346.0,WeatherDisplay:10.37,2013-06-26 16:06:00,
2013-06-26 18:08:00,76.5,59.1,30.01,West,269,11.5,11.5,55,0.00,FEW,,0.00,197.0,WeatherDisplay:10.37,2013-06-26 16:08:00,
2013-06-26 18:09:00,76.6,59.2,30.01,WSW,258,9.2,9.2,55,0.00,FEW,,0.00,199.0,WeatherDisplay:10.37,2013-06-26 16:09:00,
2013-06-26 18:11:00,76.5,59.1,30.00,West,261,11.5,11.5,55,0.00,FEW,,0.00,195.0,WeatherDisplay:10.37,2013-06-26 16:11:00,
2013-06-26 18:13:00,76.4,59.5,30.00,WSW,255,11.5,11.5,56,0.00,FEW,,0.00,214.0,WeatherDisplay:10.37,2013-06-26 16:13:00,
2013-06-26 18:14:00,76.4,59.5,30.00,West,281,11.5,11.5,56,0.00,FEW,,0.00,225.0,WeatherDisplay:10.37,2013-06-26 16:14:00,
2013-06-26 18:16:00,76.3,59.4,30.00,NW,315,11.5,11.5,56,0.00,FEW,,0.00,232.0,WeatherDisplay:10.37,2013-06-26 16:16:00,
2013-06-26 18:18:00,76.1,58.8,30.00,WNW,290,16.1,16.1,55,0.00,FEW,,0.00,373.0,WeatherDisplay:10.37,2013-06-26 16:18:00,
2013-06-26 18:19:00,76.1,58.8,30.00,West,279,16.1,16.1,55,0.00,FEW,,0.00,373.0,WeatherDisplay:10.37,2013-06-26 16:19:00,
2013-06-26 18:21:00,76.0,59.2,30.00,WNW,296,11.5,11.5,56,0.00,FEW,,0.00,227.0,WeatherDisplay:10.37,2013-06-26 16:21:00,
2013-06-26 18:24:00,75.9,59.1,30.00,WNW,299,10.4,10.4,56,0.00,FEW,,0.00,197.0,WeatherDisplay:10.37,2013-06-26 16:24:00,
2013-06-26 18:26:00,76.0,59.7,30.01,NW,315,16.1,16.1,57,0.00,FEW,,0.00,253.0,WeatherDisplay:10.37,2013-06-26 16:26:00,
2013-06-26 18:29:00,75.9,58.1,30.01,WNW,284,15.0,15.0,54,0.00,FEW,,0.00,188.0,WeatherDisplay:10.37,2013-06-26 16:29:00,
2013-06-26 18:30:00,75.8,56.9,30.01,WNW,289,12.7,12.7,52,0.00,FEW,,0.00,167.0,WeatherDisplay:10.37,2013-06-26 16:30:00,
2013-06-26 18:32:00,75.8,56.4,30.01,WNW,290,16.0,16.0,51,0.00,FEW,,0.00,153.0,WeatherDisplay:10.37,2013-06-26 16:32:00,
2013-06-26 18:34:00,75.8,55.8,30.01,NW,311,15.0,15.0,50,0.00,FEW,,0.00,153.0,WeatherDisplay:10.37,2013-06-26 16:34:00,
2013-06-26 18:35:00,75.7,55.7,30.01,WNW,299,11.5,11.5,50,0.00,FEW,,0.00,149.0,WeatherDisplay:10.37,2013-06-26 16:35:00,
2013-06-26 18:37:00,75.8,55.8,30.01,West,281,11.5,11.5,50,0.00,FEW,,0.00,236.0,WeatherDisplay:10.37,2013-06-26 16:37:00,
2013-06-26 18:39:00,75.8,55.3,30.01,West,271,15.0,15.0,49,0.00,FEW,,0.00,193.0,WeatherDisplay:10.37,2013-06-26 16:39:00,
2013-06-26 18:40:00,75.8,55.3,30.01,West,275,15.0,15.0,49,0.00,FEW,,0.00,109.0,WeatherDisplay:10.37,2013-06-26 16:40:00,
2013-06-26 18:41:00,75.8,55.3,30.01,WNW,292,11.5,11.5,49,0.00,FEW,,0.00,102.0,WeatherDisplay:10.37,2013-06-26 16:41:00,
2013-06-26 18:42:00,75.7,55.2,30.01,NW,315,11.5,11.5,49,0.00,FEW,,0.00,91.0,WeatherDisplay:10.37,2013-06-26 16:42:00,
2013-06-26 18:44:00,75.8,55.3,30.01,WNW,295,10.4,10.4,49,0.00,FEW,,0.00,91.0,WeatherDisplay:10.37,2013-06-26 16:44:00,
2013-06-26 18:45:00,75.8,55.3,30.01,NW,325,9.2,9.2,49,0.00,FEW,,0.00,62.0,WeatherDisplay:10.37,2013-06-26 16:45:00,
2013-06-26 18:46:00,75.7,55.2,30.01,NW,312,8.1,8.1,49,0.00,FEW,,0.00,56.0,WeatherDisplay:10.37,2013-06-26 16:46:00,
2013-06-26 18:47:00,75.8,55.3,30.01,WNW,298,6.0,6.0,49,0.00,FEW,,0.00,46.0,WeatherDisplay:10.37,2013-06-26 16:47:00,
2013-06-26 18:49:00,75.8,55.3,30.01,NE,37,16.0,16.0,49,0.00,SCT,,0.00,37.0,WeatherDisplay:10.37,2013-06-26 16:49:00,
2013-06-26 18:50:00,75.8,55.3,30.02,NE,47,18.4,18.4,49,0.00,SCT,,0.00,35.0,WeatherDisplay:10.37,2013-06-26 16:50:00,
2013-06-26 18:51:00,75.7,55.7,30.01,ENE,59,17.3,17.3,50,0.00,SCT,,0.00,33.0,WeatherDisplay:10.37,2013-06-26 16:51:00,
2013-06-26 18:52:00,75.6,55.1,30.02,NE,38,10.4,10.4,49,0.00,BKN,,0.00,32.0,WeatherDisplay:10.37,2013-06-26 16:52:00,
2013-06-26 18:54:00,75.5,55.6,30.02,ENE,67,10.4,10.4,50,0.00,BKN,,0.00,30.0,WeatherDisplay:10.37,2013-06-26 16:54:00,
2013-06-26 18:55:00,75.4,55.5,30.02,NE,35,10.4,10.4,50,0.00,BKN,,0.00,30.0,WeatherDisplay:10.37,2013-06-26 16:55:00,
2013-06-26 18:56:00,75.4,55.5,30.02,ENE,61,9.2,9.2,50,0.00,BKN,,0.00,30.0,WeatherDisplay:10.37,2013-06-26 16:56:00,
2013-06-26 18:57:00,75.3,55.4,30.02,North,5,12.7,12.7,50,0.00,BKN,,0.00,30.0,WeatherDisplay:10.37,2013-06-26 16:57:00,
2013-06-26 18:59:00,75.2,54.7,30.02,NNE,32,13.8,13.8,49,0.00,BKN,,0.00,32.0,WeatherDisplay:10.37,2013-06-26 16:59:00,
2013-06-26 19:00:00,75.2,54.7,30.02,NE,52,16.1,16.1,49,0.00,BKN,,0.00,33.0,WeatherDisplay:10.37,2013-06-26 17:00:00,
2013-06-26 19:01:00,75.1,54.6,30.02,North,360,16.1,16.1,49,0.00,BKN,,0.00,33.0,WeatherDisplay:10.37,2013-06-26 17:01:00,
2013-06-26 19:02:00,75.1,54.6,30.02,NE,53,13.8,13.8,49,0.00,BKN,,0.00,33.0,WeatherDisplay:10.37,2013-06-26 17:02:00,
2013-06-26 19:03:00,75.0,54.5,30.02,NE,36,11.5,11.5,49,0.00,BKN,,0.00,39.0,WeatherDisplay:10.37,2013-06-26 17:03:00,
2013-06-26 19:04:00,74.9,55.0,30.02,NE,47,18.4,18.4,50,0.00,BKN,,0.00,42.0,WeatherDisplay:10.37,2013-06-26 17:04:00,
2013-06-26 19:05:00,74.8,54.9,30.02,ENE,59,14.0,14.0,50,0.00,BKN,,0.00,42.0,WeatherDisplay:10.37,2013-06-26 17:05:00,
2013-06-26 19:07:00,74.7,54.8,30.02,NNE,31,15.0,15.0,50,0.00,BKN,,0.00,42.0,WeatherDisplay:10.37,2013-06-26 17:07:00,
2013-06-26 19:08:00,74.6,54.7,30.02,NE,42,17.3,17.3,50,0.00,BKN,,0.00,42.0,WeatherDisplay:10.37,2013-06-26 17:08:00,
2013-06-26 19:10:00,74.5,54.6,30.02,NE,53,16.1,16.1,50,0.00,BKN,,0.00,42.0,WeatherDisplay:10.37,2013-06-26 17:10:00,
2013-06-26 19:11:00,74.4,55.1,30.02,NE,34,16.1,16.1,51,0.00,BKN,,0.00,42.0,WeatherDisplay:10.37,2013-06-26 17:11:00,
2013-06-26 19:12:00,74.3,55.0,30.02,NNE,31,13.8,13.8,51,0.00,BKN,,0.00,42.0,WeatherDisplay:10.37,2013-06-26 17:12:00,
2013-06-26 19:13:00,74.3,55.0,30.02,NE,43,8.1,8.1,51,0.00,BKN,,0.00,42.0,WeatherDisplay:10.37,2013-06-26 17:13:00,
2013-06-26 19:15:00,74.3,55.0,30.02,NE,38,13.0,13.0,51,0.00,BKN,,0.00,42.0,WeatherDisplay:10.37,2013-06-26 17:15:00,
2013-06-26 19:16:00,74.2,54.9,30.02,East,80,15.0,15.0,51,0.00,BKN,,0.00,42.0,WeatherDisplay:10.37,2013-06-26 17:16:00,
2013-06-26 19:17:00,74.3,55.0,30.02,ENE,67,11.5,11.5,51,0.00,BKN,,0.00,44.0,WeatherDisplay:10.37,2013-06-26 17:17:00,
2013-06-26 19:18:00,74.2,54.9,30.02,ENE,78,16.1,16.1,51,0.00,BKN,,0.00,46.0,WeatherDisplay:10.37,2013-06-26 17:18:00,
2013-06-26 19:20:00,74.2,54.9,30.02,NE,49,18.0,18.0,51,0.00,BKN,,0.00,47.0,WeatherDisplay:10.37,2013-06-26 17:20:00,
2013-06-26 19:21:00,74.2,54.9,30.02,NE,51,18.4,18.4,51,0.00,BKN,,0.00,47.0,WeatherDisplay:10.37,2013-06-26 17:21:00,
2013-06-26 19:22:00,74.2,54.9,30.02,ENE,63,15.0,15.0,51,0.00,BKN,,0.00,49.0,WeatherDisplay:10.37,2013-06-26 17:22:00,
2013-06-26 19:24:00,74.2,54.9,30.02,ENE,61,11.5,11.5,51,0.00,BKN,,0.00,47.0,WeatherDisplay:10.37,2013-06-26 17:24:00,
2013-06-26 19:25:00,74.1,54.8,30.02,East,84,14.0,14.0,51,0.00,BKN,,0.00,49.0,WeatherDisplay:10.37,2013-06-26 17:25:00,
2013-06-26 19:26:00,74.1,54.8,30.02,East,87,13.8,13.8,51,0.00,SCT,,0.00,49.0,WeatherDisplay:10.37,2013-06-26 17:26:00,
2013-06-26 19:27:00,74.0,55.3,30.02,ENE,74,12.7,12.7,52,0.00,SCT,,0.00,51.0,WeatherDisplay:10.37,2013-06-26 17:27:00,
2013-06-26 19:29:00,74.0,55.3,30.02,East,94,11.5,11.5,52,0.00,SCT,,0.00,54.0,WeatherDisplay:10.37,2013-06-26 17:29:00,
2013-06-26 19:31:00,73.9,55.2,30.02,East,86,10.0,10.0,52,0.00,SCT,,0.00,56.0,WeatherDisplay:10.37,2013-06-26 17:31:00,
2013-06-26 19:32:00,73.9,55.2,30.03,ENE,70,12.7,12.7,52,0.00,SCT,,0.00,56.0,WeatherDisplay:10.37,2013-06-26 17:32:00,
2013-06-26 19:33:00,73.9,55.2,30.03,ENE,70,12.7,12.7,52,0.00,SCT,,0.00,56.0,WeatherDisplay:10.37,2013-06-26 17:33:00,
2013-06-26 19:34:00,73.9,55.2,30.02,NE,38,13.0,13.0,52,0.00,SCT,,0.00,54.0,WeatherDisplay:10.37,2013-06-26 17:34:00,
2013-06-26 19:36:00,73.7,55.5,30.03,ENE,76,15.0,15.0,53,0.00,SCT,,0.00,54.0,WeatherDisplay:10.37,2013-06-26 17:36:00,
2013-06-26 19:38:00,73.6,55.4,30.02,NE,42,11.5,11.5,53,0.00,SCT,,0.00,54.0,WeatherDisplay:10.37,2013-06-26 17:38:00,
2013-06-26 19:39:00,73.5,55.3,30.02,ESE,119,10.4,10.4,53,0.00,SCT,,0.00,54.0,WeatherDisplay:10.37,2013-06-26 17:39:00,
2013-06-26 19:41:00,73.4,55.7,30.02,East,90,10.0,10.0,54,0.00,SCT,,0.00,51.0,WeatherDisplay:10.37,2013-06-26 17:41:00,
2013-06-26 19:43:00,73.4,55.7,30.03,East,89,11.5,11.5,54,0.00,SCT,,0.00,47.0,WeatherDisplay:10.37,2013-06-26 17:43:00,
2013-06-26 19:44:00,73.3,55.6,30.02,East,99,12.7,12.7,54,0.00,SCT,,0.00,44.0,WeatherDisplay:10.37,2013-06-26 17:44:00,
2013-06-26 19:46:00,72.9,55.8,30.02,East,88,13.8,13.8,55,0.00,SCT,,0.00,37.0,WeatherDisplay:10.37,2013-06-26 17:46:00,
2013-06-26 19:47:00,72.9,55.8,30.02,East,88,13.8,13.8,55,0.00,SCT,,0.00,37.0,WeatherDisplay:10.37,2013-06-26 17:47:00,
2013-06-26 19:48:00,72.8,55.7,30.03,East,98,11.5,11.5,55,0.00,SCT,,0.00,33.0,WeatherDisplay:10.37,2013-06-26 17:48:00,
2013-06-26 19:49:00,72.7,55.6,30.02,East,91,9.2,9.2,55,0.00,SCT,,0.00,37.0,WeatherDisplay:10.37,2013-06-26 17:49:00,
2013-06-26 19:52:00,72.5,55.9,30.03,ESE,104,6.0,6.0,56,0.00,SCT,,0.00,30.0,WeatherDisplay:10.37,2013-06-26 17:52:00,
2013-06-26 19:53:00,72.4,55.8,30.03,ESE,104,12.7,12.7,56,0.00,SCT,,0.00,33.0,WeatherDisplay:10.37,2013-06-26 17:53:00,
2013-06-26 19:54:00,72.4,55.8,30.03,NE,54,12.7,12.7,56,0.00,SCT,,0.00,35.0,WeatherDisplay:10.37,2013-06-26 17:54:00,
2013-06-26 19:57:00,72.3,55.7,30.03,East,93,10.4,10.4,56,0.00,SCT,,0.00,28.0,WeatherDisplay:10.37,2013-06-26 17:57:00,
2013-06-26 19:59:00,72.2,55.6,30.03,ENE,63,10.4,10.4,56,0.00,SCT,,0.00,25.0,WeatherDisplay:10.37,2013-06-26 17:59:00,
2013-06-26 20:00:00,72.1,55.5,30.03,ENE,75,11.5,11.5,56,0.00,SCT,,0.00,25.0,WeatherDisplay:10.37,2013-06-26 18:00:00,
2013-06-26 20:02:00,72.0,55.9,30.03,ENE,74,3.5,3.5,57,0.00,SCT,,0.00,23.0,WeatherDisplay:10.37,2013-06-26 18:02:00,
2013-06-26 20:04:00,72.0,55.9,30.03,ESE,113,9.2,9.2,57,0.00,SCT,,0.00,21.0,WeatherDisplay:10.37,2013-06-26 18:04:00,
2013-06-26 20:05:00,72.0,55.4,30.02,ENE,71,10.0,10.0,56,0.00,SCT,,0.00,21.0,WeatherDisplay:10.37,2013-06-26 18:05:00,
2013-06-26 20:08:00,71.9,55.3,30.03,East,82,11.5,11.5,56,0.00,SCT,,0.00,21.0,WeatherDisplay:10.37,2013-06-26 18:08:00,
2013-06-26 20:09:00,71.8,55.3,30.03,ENE,74,16.1,16.1,56,0.00,SCT,,0.00,21.0,WeatherDisplay:10.37,2013-06-26 18:09:00,
2013-06-26 20:10:00,71.8,55.3,30.03,ENE,76,16.1,16.1,56,0.00,SCT,,0.00,21.0,WeatherDisplay:10.37,2013-06-26 18:10:00,
2013-06-26 20:13:00,71.7,55.2,30.03,ENE,61,11.5,11.5,56,0.00,SCT,,0.00,19.0,WeatherDisplay:10.37,2013-06-26 18:13:00,
2013-06-26 20:14:00,71.6,55.1,30.03,ESE,102,11.5,11.5,56,0.00,SCT,,0.00,18.0,WeatherDisplay:10.37,2013-06-26 18:14:00,
2013-06-26 20:15:00,71.6,55.1,30.03,ENE,78,11.5,11.5,56,0.00,SCT,,0.00,18.0,WeatherDisplay:10.37,2013-06-26 18:15:00,
2013-06-26 20:18:00,71.5,55.0,30.03,ENE,61,15.0,15.0,56,0.00,SCT,,0.00,14.0,WeatherDisplay:10.37,2013-06-26 18:18:00,
2013-06-26 20:19:00,71.4,54.9,30.03,East,96,13.8,13.8,56,0.00,SCT,,0.00,12.0,WeatherDisplay:10.37,2013-06-26 18:19:00,
2013-06-26 20:20:00,71.4,54.9,30.03,East,96,13.8,13.8,56,0.00,SCT,,0.00,12.0,WeatherDisplay:10.37,2013-06-26 18:20:00,
2013-06-26 20:23:00,71.4,54.9,30.03,East,86,9.2,9.2,56,0.00,SCT,,0.00,11.0,WeatherDisplay:10.37,2013-06-26 18:23:00,
2013-06-26 20:25:00,71.4,54.9,30.02,East,84,11.5,11.5,56,0.00,SCT,,0.00,9.0,WeatherDisplay:10.37,2013-06-26 18:25:00,
2013-06-26 20:28:00,71.4,54.9,30.03,East,90,6.9,6.9,56,0.00,SCT,,0.00,7.0,WeatherDisplay:10.37,2013-06-26 18:28:00,
2013-06-26 20:30:00,71.4,54.9,30.03,ENE,65,11.0,11.0,56,0.00,SCT,,0.00,7.0,WeatherDisplay:10.37,2013-06-26 18:30:00,
2013-06-26 20:31:00,71.3,54.8,30.03,East,95,12.7,12.7,56,0.00,SCT,,0.00,5.0,WeatherDisplay:10.37,2013-06-26 18:31:00,
2013-06-26 20:33:00,71.3,54.8,30.03,East,92,11.0,11.0,56,0.00,SCT,,0.00,5.0,WeatherDisplay:10.37,2013-06-26 18:33:00,
2013-06-26 20:34:00,71.3,54.8,30.03,ENE,77,10.4,10.4,56,0.00,SCT,,0.00,5.0,WeatherDisplay:10.37,2013-06-26 18:34:00,
2013-06-26 20:35:00,71.2,54.7,30.03,East,84,11.5,11.5,56,0.00,SCT,,0.00,0.0,WeatherDisplay:10.37,2013-06-26 18:35:00,
2013-06-26 20:36:00,71.2,54.7,30.03,ENE,65,11.5,11.5,56,0.00,SCT,,0.00,0.0,WeatherDisplay:10.37,2013-06-26 18:36:00,
2013-06-26 20:38:00,71.2,54.7,30.03,ENE,75,8.1,8.1,56,0.00,SCT,,0.00,0.0,WeatherDisplay:10.37,2013-06-26 18:38:00,
2013-06-26 20:40:00,71.2,54.7,30.03,ENE,73,7.0,7.0,56,0.00,SCT,,0.00,0.0,WeatherDisplay:10.37,2013-06-26 18:40:00,
2013-06-26 20:41:00,71.2,54.7,30.03,ENE,78,9.2,9.2,56,0.00,SCT,,0.00,0.0,WeatherDisplay:10.37,2013-06-26 18:41:00,
2013-06-26 20:43:00,71.2,54.7,30.03,ENE,64,8.1,8.1,56,0.00,SCT,,0.00,0.0,WeatherDisplay:10.37,2013-06-26 18:43:00,
2013-06-26 20:45:00,71.2,54.7,30.03,ENE,78,9.2,9.2,56,0.00,SCT,,0.00,0.0,WeatherDisplay:10.37,2013-06-26 18:45:00,
2013-06-26 20:46:00,71.1,54.6,30.03,ENE,66,12.7,12.7,56,0.00,SCT,,0.00,0.0,WeatherDisplay:10.37,2013-06-26 18:46:00,
2013-06-26 20:50:00,71.0,54.0,30.03,ENE,74,11.5,11.5,55,0.00,SCT,,0.00,0.0,WeatherDisplay:10.37,2013-06-26 18:50:00,
2013-06-26 20:51:00,71.0,54.0,30.02,NE,42,10.4,10.4,55,0.00,SCT,,0.00,0.0,WeatherDisplay:10.37,2013-06-26 18:51:00,
2013-06-26 20:55:00,70.9,53.9,30.03,ENE,71,9.2,9.2,55,0.00,SCT,,0.00,0.0,WeatherDisplay:10.37,2013-06-26 18:55:00,
2013-06-26 20:56:00,70.9,53.9,30.03,ENE,74,11.5,11.5,55,0.00,SCT,,0.00,0.0,WeatherDisplay:10.37,2013-06-26 18:56:00,
2013-06-26 20:57:00,70.8,53.8,30.03,East,98,11.5,11.5,55,0.00,SCT,,0.00,0.0,WeatherDisplay:10.37,2013-06-26 18:57:00,
2013-06-26 21:00:00,70.8,53.8,30.03,ENE,69,10.4,10.4,55,0.00,SCT,,0.00,0.0,WeatherDisplay:10.37,2013-06-26 19:00:00,
2013-06-26 21:02:00,70.8,53.8,30.03,ENE,75,11.5,11.5,55,0.00,SCT,,0.00,0.0,WeatherDisplay:10.37,2013-06-26 19:02:00,
2013-06-26 21:05:00,70.8,53.8,30.03,ENE,71,10.4,10.4,55,0.00,SCT,,0.00,0.0,WeatherDisplay:10.37,2013-06-26 19:05:00,
2013-06-26 21:07:00,70.7,53.7,30.03,East,79,10.4,10.4,55,0.00,SCT,,0.00,0.0,WeatherDisplay:10.37,2013-06-26 19:07:00,
2013-06-26 21:08:00,70.7,53.7,30.03,ENE,68,8.1,8.1,55,0.00,SCT,,0.00,0.0,WeatherDisplay:10.37,2013-06-26 19:08:00,
2013-06-26 21:10:00,70.7,53.7,30.03,NE,38,10.4,10.4,55,0.00,SCT,,0.00,0.0,WeatherDisplay:10.37,2013-06-26 19:10:00,
2013-06-26 21:12:00,70.7,53.7,30.03,East,81,8.1,8.1,55,0.00,SCT,,0.00,0.0,WeatherDisplay:10.37,2013-06-26 19:12:00,
2013-06-26 21:13:00,70.7,53.7,30.03,ENE,74,11.5,11.5,55,0.00,SCT,,0.00,0.0,WeatherDisplay:10.37,2013-06-26 19:13:00,
2013-06-26 21:16:00,70.7,53.7,30.03,East,97,9.2,9.2,55,0.00,SCT,,0.00,0.0,WeatherDisplay:10.37,2013-06-26 19:16:00,
2013-06-26 21:17:00,70.6,53.6,30.03,East,81,10.4,10.4,55,0.00,SCT,,0.00,0.0,WeatherDisplay:10.37,2013-06-26 19:17:00,
2013-06-26 21:18:00,70.7,53.7,30.03,East,82,6.9,6.9,55,0.00,SCT,,0.00,0.0,WeatherDisplay:10.37,2013-06-26 19:18:00,
2013-06-26 21:21:00,70.6,53.6,30.03,East,83,8.1,8.1,55,0.00,SCT,,0.00,0.0,WeatherDisplay:10.37,2013-06-26 19:21:00,
2013-06-26 21:22:00,70.6,53.6,30.04,ENE,77,10.0,10.0,55,0.00,SCT,,0.00,0.0,WeatherDisplay:10.37,2013-06-26 19:22:00,
2013-06-26 21:24:00,70.6,53.6,30.03,ENE,76,11.5,11.5,55,0.00,SCT,,0.00,0.0,WeatherDisplay:10.37,2013-06-26 19:24:00,
2013-06-26 21:26:00,70.6,53.6,30.04,ENE,71,11.5,11.5,55,0.00,SCT,,0.00,0.0,WeatherDisplay:10.37,2013-06-26 19:26:00,
2013-06-26 21:27:00,70.6,53.6,30.04,ENE,74,10.4,10.4,55,0.00,SCT,,0.00,0.0,WeatherDisplay:10.37,2013-06-26 19:27:00,
2013-06-26 21:29:00,70.6,53.6,30.04,East,96,11.5,11.5,55,0.00,SCT,,0.00,0.0,WeatherDisplay:10.37,2013-06-26 19:29:00,
2013-06-26 21:31:00,70.6,53.6,30.04,ENE,64,9.2,9.2,55,0.00,SCT,,0.00,0.0,WeatherDisplay:10.37,2013-06-26 19:31:00,
2013-06-26 21:32:00,70.6,53.6,30.04,ENE,78,10.4,10.4,55,0.00,SCT,,0.00,0.0,WeatherDisplay:10.37,2013-06-26 19:32:00,
2013-06-26 21:33:00,70.6,53.6,30.04,ENE,71,10.4,10.4,55,0.00,SCT,,0.00,0.0,WeatherDisplay:10.37,2013-06-26 19:33:00,
2013-06-26 21:34:00,70.6,53.6,30.04,ENE,78,11.5,11.5,55,0.00,SCT,,0.00,0.0,WeatherDisplay:10.37,2013-06-26 19:34:00,
2013-06-26 21:36:00,70.6,53.6,30.04,East,82,10.4,10.4,55,0.00,SCT,,0.00,0.0,WeatherDisplay:10.37,2013-06-26 19:36:00,
2013-06-26 21:37:00,70.6,53.6,30.04,NE,46,8.1,8.1,55,0.00,SCT,,0.00,0.0,WeatherDisplay:10.37,2013-06-26 19:37:00,
2013-06-26 21:38:00,70.5,53.6,30.04,ENE,72,10.4,10.4,55,0.00,SCT,,0.00,0.0,WeatherDisplay:10.37,2013-06-26 19:38:00,
2013-06-26 21:40:00,70.5,53.6,30.04,East,94,9.2,9.2,55,0.00,SCT,,0.00,0.0,WeatherDisplay:10.37,2013-06-26 19:40:00,
2013-06-26 21:41:00,70.5,53.6,30.04,ENE,64,11.5,11.5,55,0.00,SCT,,0.00,0.0,WeatherDisplay:10.37,2013-06-26 19:41:00,
2013-06-26 21:42:00,70.5,53.6,30.04,East,85,11.5,11.5,55,0.00,SCT,,0.00,0.0,WeatherDisplay:10.37,2013-06-26 19:42:00,
2013-06-26 21:43:00,70.5,53.6,30.04,ENE,71,10.4,10.4,55,0.00,SCT,,0.00,0.0,WeatherDisplay:10.37,2013-06-26 19:43:00,
2013-06-26 21:44:00,70.5,53.6,30.05,ENE,73,9.2,9.2,55,0.00,SCT,,0.00,0.0,WeatherDisplay:10.37,2013-06-26 19:44:00,
2013-06-26 21:45:00,70.5,53.6,30.05,ENE,73,10.4,10.4,55,0.00,SCT,,0.00,0.0,WeatherDisplay:10.37,2013-06-26 19:45:00,
2013-06-26 21:46:00,70.4,53.0,30.05,NE,49,9.2,9.2,54,0.00,SCT,,0.00,0.0,WeatherDisplay:10.37,2013-06-26 19:46:00,
2013-06-26 21:47:00,70.5,53.1,30.05,East,86,10.4,10.4,54,0.00,SCT,,0.00,0.0,WeatherDisplay:10.37,2013-06-26 19:47:00,
2013-06-26 21:48:00,70.5,53.1,30.05,East,88,10.4,10.4,54,0.00,SCT,,0.00,0.0,WeatherDisplay:10.37,2013-06-26 19:48:00,
2013-06-26 21:49:00,70.5,53.1,30.05,East,82,9.2,9.2,54,0.00,SCT,,0.00,0.0,WeatherDisplay:10.37,2013-06-26 19:49:00,
2013-06-26 21:50:00,70.5,53.1,30.05,ENE,77,9.2,9.2,54,0.00,SCT,,0.00,0.0,WeatherDisplay:10.37,2013-06-26 19:50:00,
2013-06-26 21:51:00,70.5,53.1,30.05,ENE,75,10.4,10.4,54,0.00,SCT,,0.00,0.0,WeatherDisplay:10.37,2013-06-26 19:51:00,
2013-06-26 21:53:00,70.5,53.1,30.05,ENE,73,11.5,11.5,54,0.00,SCT,,0.00,0.0,WeatherDisplay:10.37,2013-06-26 19:53:00,
2013-06-26 21:54:00,70.5,53.1,30.05,ENE,74,10.4,10.4,54,0.00,SCT,,0.00,0.0,WeatherDisplay:10.37,2013-06-26 19:54:00,
2013-06-26 21:55:00,70.5,53.1,30.05,NE,55,11.5,11.5,54,0.00,SCT,,0.00,0.0,WeatherDisplay:10.37,2013-06-26 19:55:00,
2013-06-26 21:57:00,70.6,53.1,30.05,ENE,69,12.7,12.7,54,0.00,SCT,,0.00,0.0,WeatherDisplay:10.37,2013-06-26 19:57:00,
2013-06-26 21:58:00,70.6,53.1,30.05,ENE,62,11.5,11.5,54,0.00,SCT,,0.00,0.0,WeatherDisplay:10.37,2013-06-26 19:58:00,
2013-06-26 21:59:00,70.6,53.1,30.05,ENE,57,10.4,10.4,54,0.00,SCT,,0.00,0.0,WeatherDisplay:10.37,2013-06-26 19:59:00,
2013-06-26 22:00:00,70.6,53.1,30.05,ENE,65,9.2,9.2,54,0.00,SCT,,0.00,0.0,WeatherDisplay:10.37,2013-06-26 20:00:00,
2013-06-26 22:02:00,70.6,52.6,30.05,ENE,71,11.5,11.5,53,0.00,SCT,,0.00,0.0,WeatherDisplay:10.37,2013-06-26 20:02:00,
2013-06-26 22:03:00,70.6,52.6,30.05,ENE,65,8.1,8.1,53,0.00,SCT,,0.00,0.0,WeatherDisplay:10.37,2013-06-26 20:03:00,
2013-06-26 22:04:00,70.6,52.6,30.05,ENE,57,12.0,12.0,53,0.00,SCT,,0.00,0.0,WeatherDisplay:10.37,2013-06-26 20:04:00,
2013-06-26 22:05:00,70.6,52.6,30.05,ENE,74,9.2,9.2,53,0.00,SCT,,0.00,0.0,WeatherDisplay:10.37,2013-06-26 20:05:00,
2013-06-26 22:07:00,70.7,52.7,30.05,ENE,75,11.0,11.0,53,0.00,SCT,,0.00,0.0,WeatherDisplay:10.37,2013-06-26 20:07:00,
2013-06-26 22:08:00,70.7,52.7,30.05,ENE,73,9.2,9.2,53,0.00,SCT,,0.00,0.0,WeatherDisplay:10.37,2013-06-26 20:08:00,
2013-06-26 22:09:00,70.7,52.7,30.05,East,96,9.2,9.2,53,0.00,SCT,,0.00,0.0,WeatherDisplay:10.37,2013-06-26 20:09:00,
2013-06-26 22:10:00,70.7,52.7,30.05,ENE,78,9.2,9.2,53,0.00,SCT,,0.00,0.0,WeatherDisplay:10.37,2013-06-26 20:10:00,
2013-06-26 22:12:00,70.7,52.7,30.05,East,80,8.1,8.1,53,0.00,SCT,,0.00,0.0,WeatherDisplay:10.37,2013-06-26 20:12:00,
2013-06-26 22:13:00,70.7,52.7,30.05,East,84,10.0,10.0,53,0.00,SCT,,0.00,0.0,WeatherDisplay:10.37,2013-06-26 20:13:00,
2013-06-26 22:15:00,70.7,52.7,30.05,ENE,67,13.8,13.8,53,0.00,SCT,,0.00,0.0,WeatherDisplay:10.37,2013-06-26 20:15:00,
2013-06-26 22:17:00,70.7,52.7,30.05,NE,46,10.4,10.4,53,0.00,SCT,,0.00,0.0,WeatherDisplay:10.37,2013-06-26 20:17:00,
2013-06-26 22:19:00,70.7,52.7,30.05,ENE,65,9.0,9.0,53,0.00,SCT,,0.00,0.0,WeatherDisplay:10.37,2013-06-26 20:19:00,
2013-06-26 22:20:00,70.7,52.2,30.05,ENE,67,12.0,12.0,52,0.00,SCT,,0.00,0.0,WeatherDisplay:10.37,2013-06-26 20:20:00,
2013-06-26 22:22:00,70.6,52.1,30.05,ENE,76,10.4,10.4,52,0.00,SCT,,0.00,0.0,WeatherDisplay:10.37,2013-06-26 20:22:00,
2013-06-26 22:24:00,70.6,52.1,30.05,ENE,67,11.5,11.5,52,0.00,SCT,,0.00,0.0,WeatherDisplay:10.37,2013-06-26 20:24:00,
2013-06-26 22:25:00,70.6,52.1,30.05,ENE,66,11.5,11.5,52,0.00,SCT,,0.00,0.0,WeatherDisplay:10.37,2013-06-26 20:25:00,
2013-06-26 22:26:00,70.6,52.1,30.05,East,98,10.0,10.0,52,0.00,SCT,,0.00,0.0,WeatherDisplay:10.37,2013-06-26 20:26:00,
2013-06-26 22:28:00,70.6,52.6,30.05,ENE,75,9.0,9.0,53,0.00,SCT,,0.00,0.0,WeatherDisplay:10.37,2013-06-26 20:28:00,
2013-06-26 22:29:00,70.6,52.6,30.05,ENE,74,11.5,11.5,53,0.00,SCT,,0.00,0.0,WeatherDisplay:10.37,2013-06-26 20:29:00,
2013-06-26 22:30:00,70.5,52.5,30.05,East,80,10.4,10.4,53,0.00,SCT,,0.00,0.0,WeatherDisplay:10.37,2013-06-26 20:30:00,
2013-06-26 22:31:00,70.5,52.5,30.05,East,86,9.2,9.2,53,0.00,SCT,,0.00,0.0,WeatherDisplay:10.37,2013-06-26 20:31:00,
2013-06-26 22:33:00,70.5,52.5,30.05,ENE,78,10.4,10.4,53,0.00,SCT,,0.00,0.0,WeatherDisplay:10.37,2013-06-26 20:33:00,
2013-06-26 22:35:00,70.4,52.4,30.05,East,99,10.4,10.4,53,0.00,SCT,,0.00,0.0,WeatherDisplay:10.37,2013-06-26 20:35:00,
2013-06-26 22:36:00,70.4,52.4,30.05,ENE,78,8.0,8.0,53,0.00,SCT,,0.00,0.0,WeatherDisplay:10.37,2013-06-26 20:36:00,
2013-06-26 22:38:00,70.3,52.4,30.05,East,86,6.9,6.9,53,0.00,SCT,,0.00,0.0,WeatherDisplay:10.37,2013-06-26 20:38:00,
2013-06-26 22:40:00,70.3,52.4,30.05,ESE,111,11.5,11.5,53,0.00,SCT,,0.00,0.0,WeatherDisplay:10.37,2013-06-26 20:40:00,
2013-06-26 22:41:00,70.3,52.4,30.05,East,79,11.5,11.5,53,0.00,SCT,,0.00,0.0,WeatherDisplay:10.37,2013-06-26 20:41:00,
2013-06-26 22:43:00,70.2,52.3,30.05,ENE,69,10.4,10.4,53,0.00,SCT,,0.00,0.0,WeatherDisplay:10.37,2013-06-26 20:43:00,
2013-06-26 22:45:00,70.2,52.3,30.05,ENE,74,4.6,4.6,53,0.00,SCT,,0.00,0.0,WeatherDisplay:10.37,2013-06-26 20:45:00,
2013-06-26 22:46:00,70.2,52.3,30.05,East,86,3.5,3.5,53,0.00,SCT,,0.00,0.0,WeatherDisplay:10.37,2013-06-26 20:46:00,
2013-06-26 22:49:00,70.1,52.2,30.05,East,83,9.2,9.2,53,0.00,SCT,,0.00,0.0,WeatherDisplay:10.37,2013-06-26 20:49:00,
2013-06-26 22:50:00,70.1,52.2,30.05,ENE,69,10.4,10.4,53,0.00,SCT,,0.00,0.0,WeatherDisplay:10.37,2013-06-26 20:50:00,
2013-06-26 22:51:00,70.1,52.2,30.05,ENE,77,6.9,6.9,53,0.00,SCT,,0.00,0.0,WeatherDisplay:10.37,2013-06-26 20:51:00,
2013-06-26 22:52:00,70.1,52.2,30.05,East,88,8.1,8.1,53,0.00,SCT,,0.00,0.0,WeatherDisplay:10.37,2013-06-26 20:52:00,
2013-06-26 22:54:00,70.1,52.2,30.05,East,96,6.0,6.0,53,0.00,SCT,,0.00,0.0,WeatherDisplay:10.37,2013-06-26 20:54:00,
2013-06-26 22:55:00,70.0,52.1,30.05,East,101,10.4,10.4,53,0.00,SCT,,0.00,0.0,WeatherDisplay:10.37,2013-06-26 20:55:00,
2013-06-26 22:56:00,70.0,52.6,30.05,East,89,9.2,9.2,54,0.00,SCT,,0.00,0.0,WeatherDisplay:10.37,2013-06-26 20:56:00,
2013-06-26 22:57:00,70.0,52.6,30.05,ESE,109,10.0,10.0,54,0.00,SCT,,0.00,0.0,WeatherDisplay:10.37,2013-06-26 20:57:00,
2013-06-26 23:00:00,69.8,52.4,30.05,East,82,6.9,6.9,54,0.00,SCT,,0.00,0.0,WeatherDisplay:10.37,2013-06-26 21:00:00,
2013-06-26 23:01:00,69.8,52.4,30.05,East,97,5.8,5.8,54,0.00,SCT,,0.00,0.0,WeatherDisplay:10.37,2013-06-26 21:01:00,
2013-06-26 23:02:00,69.8,52.4,30.05,East,84,6.0,6.0,54,0.00,SCT,,0.00,0.0,WeatherDisplay:10.37,2013-06-26 21:02:00,
2013-06-26 23:05:00,69.7,52.3,30.05,ENE,77,9.0,9.0,54,0.00,SCT,,0.00,0.0,WeatherDisplay:10.37,2013-06-26 21:05:00,
2013-06-26 23:06:00,69.7,51.8,30.05,East,90,9.2,9.2,53,0.00,SCT,,0.00,0.0,WeatherDisplay:10.37,2013-06-26 21:06:00,
2013-06-26 23:07:00,69.6,51.7,30.05,East,82,9.2,9.2,53,0.00,SCT,,0.00,0.0,WeatherDisplay:10.37,2013-06-26 21:07:00,
2013-06-26 23:10:00,69.7,51.8,30.05,ENE,64,3.0,3.0,53,0.00,SCT,,0.00,0.0,WeatherDisplay:10.37,2013-06-26 21:10:00,
2013-06-26 23:11:00,69.7,51.8,30.05,ENE,63,2.0,2.0,53,0.00,SCT,,0.00,0.0,WeatherDisplay:10.37,2013-06-26 21:11:00,
2013-06-26 23:12:00,69.7,51.8,30.05,East,83,4.6,4.6,53,0.00,SCT,,0.00,0.0,WeatherDisplay:10.37,2013-06-26 21:12:00,
2013-06-26 23:15:00,69.8,51.9,30.05,ENE,65,9.2,9.2,53,0.00,SCT,,0.00,0.0,WeatherDisplay:10.37,2013-06-26 21:15:00,
2013-06-26 23:16:00,69.8,51.9,30.05,ENE,65,10.0,10.0,53,0.00,SCT,,0.00,0.0,WeatherDisplay:10.37,2013-06-26 21:16:00,
2013-06-26 23:17:00,69.8,51.9,30.05,NE,48,11.5,11.5,53,0.00,SCT,,0.00,0.0,WeatherDisplay:10.37,2013-06-26 21:17:00,
2013-06-26 23:21:00,69.9,52.0,30.05,NE,51,5.8,5.8,53,0.00,SCT,,0.00,0.0,WeatherDisplay:10.37,2013-06-26 21:21:00,
2013-06-26 23:22:00,69.9,52.0,30.05,ENE,73,6.9,6.9,53,0.00,SCT,,0.00,0.0,WeatherDisplay:10.37,2013-06-26 21:22:00,
2013-06-26 23:23:00,69.9,52.0,30.05,ENE,74,6.9,6.9,53,0.00,SCT,,0.00,0.0,WeatherDisplay:10.37,2013-06-26 21:23:00,
2013-06-26 23:26:00,69.9,52.0,30.05,NE,55,6.9,6.9,53,0.00,SCT,,0.00,0.0,WeatherDisplay:10.37,2013-06-26 21:26:00,
2013-06-26 23:28:00,69.9,52.0,30.05,ENE,76,3.5,3.5,53,0.00,SCT,,0.00,0.0,WeatherDisplay:10.37,2013-06-26 21:28:00,
2013-06-26 23:31:00,69.8,51.9,30.05,East,89,8.1,8.1,53,0.00,SCT,,0.00,0.0,WeatherDisplay:10.37,2013-06-26 21:31:00,
2013-06-26 23:33:00,69.8,51.9,30.05,NE,53,3.5,3.5,53,0.00,SCT,,0.00,0.0,WeatherDisplay:10.37,2013-06-26 21:33:00,
2013-06-26 23:36:00,69.8,51.9,30.05,ENE,72,6.9,6.9,53,0.00,SCT,,0.00,0.0,WeatherDisplay:10.37,2013-06-26 21:36:00,
2013-06-26 23:38:00,69.8,51.9,30.05,East,87,5.8,5.8,53,0.00,SCT,,0.00,0.0,WeatherDisplay:10.37,2013-06-26 21:38:00,
2013-06-26 23:41:00,69.9,52.0,30.05,East,90,4.6,4.6,53,0.00,SCT,,0.00,0.0,WeatherDisplay:10.37,2013-06-26 21:41:00,
2013-06-26 23:42:00,69.9,52.0,30.05,ENE,67,4.6,4.6,53,0.00,SCT,,0.00,0.0,WeatherDisplay:10.37,2013-06-26 21:42:00,
2013-06-26 23:43:00,69.9,52.0,30.05,East,91,8.0,8.0,53,0.00,SCT,,0.00,0.0,WeatherDisplay:10.37,2013-06-26 21:43:00,
2013-06-26 23:46:00,69.9,51.5,30.05,East,95,10.4,10.4,52,0.00,SCT,,0.00,0.0,WeatherDisplay:10.37,2013-06-26 21:46:00,
2013-06-26 23:47:00,69.9,51.5,30.05,East,88,10.4,10.4,52,0.00,SCT,,0.00,0.0,WeatherDisplay:10.37,2013-06-26 21:47:00,
2013-06-26 23:48:00,69.9,51.5,30.05,ENE,59,8.1,8.1,52,0.00,SCT,,0.00,0.0,WeatherDisplay:10.37,2013-06-26 21:48:00,
2013-06-26 23:51:00,70.0,51.6,30.05,ESE,107,11.5,11.5,52,0.00,SCT,,0.00,0.0,WeatherDisplay:10.37,2013-06-26 21:51:00,
2013-06-26 23:52:00,70.0,51.6,30.05,East,95,11.5,11.5,52,0.00,SCT,,0.00,0.0,WeatherDisplay:10.37,2013-06-26 21:52:00,
2013-06-26 23:53:00,70.0,51.6,30.05,ENE,70,9.2,9.2,52,0.00,SCT,,0.00,0.0,WeatherDisplay:10.37,2013-06-26 21:53:00,
2013-06-26 23:54:00,70.0,51.6,30.05,NE,50,6.9,6.9,52,0.00,SCT,,0.00,0.0,WeatherDisplay:10.37,2013-06-26 21:54:00,
2013-06-26 23:57:00,70.0,51.6,30.05,ENE,67,10.0,10.0,52,0.00,SCT,,0.00,0.0,WeatherDisplay:10.37,2013-06-26 21:57:00,
2013-06-26 23:58:00,70.0,51.6,30.05,NE,35,10.4,10.4,52,0.00,SCT,,0.00,0.0,WeatherDisplay:10.37,2013-06-26 21:58:00,
2013-06-26 23:59:00,70.1,51.7,30.05,NE,49,9.2,9.2,52,0.00,SCT,,0.00,0.0,WeatherDisplay:10.37,2013-06-26 21:59:00,